Wetterdaten: Mittwoch, 27.11.2013
Datum Zeit Temp. Aussen +5cm Feuchte Auss Luftdruck Regen Sonnenschein Regendauer UV Solar Windben
27.11.2013 00:00 3,2 C 2,2 C 96 % 1033,7 hPa 0,0 l/m 0 min 0 min 0,0 UV-I 0 W/m 0,0 km/h (0 Bft)
27.11.2013 00:02 3,2 C 2,2 C 96 % 1033,7 hPa 0,0 l/m 0 min 0 min 0,0 UV-I 0 W/m 0,0 km/h (0 Bft)
27.11.2013 00:06 3,2 C 2,2 C 96 % 1033,8 hPa 0,0 l/m 0 min 0 min 0,0 UV-I 0 W/m 0,0 km/h (0 Bft)
27.11.2013 00:08 3,2 C 2,2 C 96 % 1033,7 hPa 0,0 l/m 0 min 0 min 0,0 UV-I 0 W/m 0,0 km/h (0 Bft)
27.11.2013 00:10 3,2 C 2,2 C 96 % 1033,7 hPa 0,0 l/m 0 min 0 min 0,0 UV-I 0 W/m 0,0 km/h (0 Bft)
27.11.2013 00:12 3,2 C 2,2 C 96 % 1033,7 hPa 0,0 l/m 0 min 0 min 0,0 UV-I 0 W/m 0,0 km/h (0 Bft)
27.11.2013 00:14 3,2 C 2,2 C 96 % 1033,8 hPa 0,0 l/m 0 min 0 min 0,0 UV-I 0 W/m 0,0 km/h (0 Bft)
27.11.2013 00:16 3,2 C 2,2 C 97 % 1033,9 hPa 0,0 l/m 0 min 0 min 0,0 UV-I 0 W/m 0,0 km/h (0 Bft)
27.11.2013 00:18 3,2 C 2,2 C 97 % 1033,9 hPa 0,0 l/m 0 min 0 min 0,0 UV-I 0 W/m 0,0 km/h (0 Bft)
27.11.2013 00:20 3,2 C 2,2 C 97 % 1033,9 hPa 0,0 l/m 0 min 0 min 0,0 UV-I 0 W/m 0,0 km/h (0 Bft)
27.11.2013 00:22 3,2 C 2,2 C 97 % 1033,8 hPa 0,0 l/m 0 min 0 min 0,0 UV-I 0 W/m 0,0 km/h (0 Bft)
27.11.2013 00:24 3,2 C 2,2 C 97 % 1033,6 hPa 0,0 l/m 0 min 0 min 0,0 UV-I 0 W/m 0,0 km/h (0 Bft)
27.11.2013 00:26 3,2 C 2,2 C 97 % 1033,6 hPa 0,0 l/m 0 min 0 min 0,0 UV-I 0 W/m 0,0 km/h (0 Bft)
27.11.2013 00:28 3,2 C 2,2 C 97 % 1033,6 hPa 0,0 l/m 0 min 0 min 0,0 UV-I 0 W/m 2,6 km/h (1 Bft)
27.11.2013 00:30 3,2 C 2,2 C 97 % 1033,6 hPa 0,0 l/m 0 min 0 min 0,0 UV-I 0 W/m 5,1 km/h (1 Bft)
27.11.2013 00:32 3,2 C 2,2 C 97 % 1033,6 hPa 0,0 l/m 0 min 0 min 0,0 UV-I 0 W/m 0,0 km/h (0 Bft)
27.11.2013 00:34 3,2 C 2,2 C 97 % 1033,6 hPa 0,0 l/m 0 min 0 min 0,0 UV-I 0 W/m 0,0 km/h (0 Bft)
27.11.2013 00:36 3,2 C 2,2 C 97 % 1033,6 hPa 0,0 l/m 0 min 0 min 0,0 UV-I 0 W/m 2,6 km/h (1 Bft)
27.11.2013 00:38 3,3 C 2,2 C 97 % 1033,6 hPa 0,0 l/m 0 min 0 min 0,0 UV-I 0 W/m 0,0 km/h (0 Bft)
27.11.2013 00:40 3,3 C 2,2 C 97 % 1033,6 hPa 0,0 l/m 0 min 0 min 0,0 UV-I 0 W/m 2,6 km/h (1 Bft)
27.11.2013 00:42 3,2 C 2,2 C 97 % 1033,6 hPa 0,0 l/m 0 min 0 min 0,0 UV-I 0 W/m 0,0 km/h (0 Bft)
27.11.2013 00:44 3,3 C 2,2 C 97 % 1033,6 hPa 0,0 l/m 0 min 0 min 0,0 UV-I 0 W/m 0,0 km/h (0 Bft)
27.11.2013 00:46 3,3 C 2,2 C 97 % 1033,5 hPa 0,0 l/m 0 min 0 min 0,0 UV-I 0 W/m 2,6 km/h (1 Bft)
27.11.2013 00:48 3,3 C 2,2 C 97 % 1033,5 hPa 0,0 l/m 0 min 0 min 0,0 UV-I 0 W/m 0,0 km/h (0 Bft)
27.11.2013 00:50 3,3 C 2,2 C 97 % 1033,5 hPa 0,0 l/m 0 min 0 min 0,0 UV-I 0 W/m 0,0 km/h (0 Bft)
27.11.2013 00:52 3,3 C 2,2 C 97 % 1033,4 hPa 0,0 l/m 0 min 0 min 0,0 UV-I 0 W/m 0,0 km/h (0 Bft)
27.11.2013 00:54 3,3 C 2,2 C 97 % 1033,5 hPa 0,0 l/m 0 min 0 min 0,0 UV-I 0 W/m 0,0 km/h (0 Bft)
27.11.2013 00:56 3,2 C 2,2 C 97 % 1033,5 hPa 0,0 l/m 0 min 0 min 0,0 UV-I 0 W/m 5,1 km/h (1 Bft)
27.11.2013 00:58 3,2 C 2,2 C 97 % 1033,5 hPa 0,0 l/m 0 min 0 min 0,0 UV-I 0 W/m 0,0 km/h (0 Bft)
27.11.2013 01:00 3,2 C 2,2 C 97 % 1033,5 hPa 0,0 l/m 0 min 0 min 0,0 UV-I 0 W/m 5,1 km/h (1 Bft)
27.11.2013 01:02 3,2 C 2,2 C 97 % 1033,4 hPa 0,0 l/m 0 min 0 min 0,0 UV-I 0 W/m 0,0 km/h (0 Bft)
27.11.2013 01:04 3,2 C 2,2 C 97 % 1033,5 hPa 0,0 l/m 0 min 0 min 0,0 UV-I 0 W/m 0,0 km/h (0 Bft)
27.11.2013 01:06 3,2 C 2,2 C 97 % 1033,4 hPa 0,0 l/m 0 min 0 min 0,0 UV-I 0 W/m 0,0 km/h (0 Bft)
27.11.2013 01:08 3,2 C 2,2 C 97 % 1033,5 hPa 0,0 l/m 0 min 0 min 0,0 UV-I 0 W/m 0,0 km/h (0 Bft)
27.11.2013 01:10 3,2 C 2,2 C 97 % 1033,4 hPa 0,0 l/m 0 min 0 min 0,0 UV-I 0 W/m 2,6 km/h (1 Bft)
27.11.2013 01:12 3,2 C 2,2 C 97 % 1033,4 hPa 0,0 l/m 0 min 0 min 0,0 UV-I 0 W/m 0,0 km/h (0 Bft)
27.11.2013 01:14 3,2 C 2,2 C 97 % 1033,3 hPa 0,0 l/m 0 min 0 min 0,0 UV-I 0 W/m 7,7 km/h (2 Bft)
27.11.2013 01:16 3,2 C 2,2 C 97 % 1033,4 hPa 0,0 l/m 0 min 0 min 0,0 UV-I 0 W/m 5,1 km/h (1 Bft)
27.11.2013 01:18 3,2 C 2,2 C 97 % 1033,3 hPa 0,0 l/m 0 min 0 min 0,0 UV-I 0 W/m 0,0 km/h (0 Bft)
27.11.2013 01:20 3,2 C 2,2 C 97 % 1033,4 hPa 0,0 l/m 0 min 0 min 0,0 UV-I 0 W/m 0,0 km/h (0 Bft)
27.11.2013 01:22 3,1 C 2,2 C 97 % 1033,4 hPa 0,0 l/m 0 min 0 min 0,0 UV-I 0 W/m 2,6 km/h (1 Bft)
27.11.2013 01:24 3,1 C 2,2 C 97 % 1033,4 hPa 0,0 l/m 0 min 0 min 0,0 UV-I 0 W/m 0,0 km/h (0 Bft)
27.11.2013 01:26 3,1 C 2,2 C 97 % 1033,3 hPa 0,0 l/m 0 min 0 min 0,0 UV-I 0 W/m 0,0 km/h (0 Bft)
27.11.2013 01:28 3,1 C 2,2 C 97 % 1033,3 hPa 0,0 l/m 0 min 0 min 0,0 UV-I 0 W/m 7,7 km/h (2 Bft)
27.11.2013 01:30 3,1 C 2,2 C 97 % 1033,2 hPa 0,0 l/m 0 min 0 min 0,0 UV-I 0 W/m 5,1 km/h (1 Bft)
27.11.2013 01:32 3,1 C 2,2 C 97 % 1033,3 hPa 0,0 l/m 0 min 0 min 0,0 UV-I 0 W/m 5,1 km/h (1 Bft)
27.11.2013 01:34 3,1 C 2,2 C 97 % 1033,2 hPa 0,0 l/m 0 min 0 min 0,0 UV-I 0 W/m 2,6 km/h (1 Bft)
27.11.2013 01:36 3,1 C 2,2 C 97 % 1033,2 hPa 0,0 l/m 0 min 0 min 0,0 UV-I 0 W/m 2,6 km/h (1 Bft)
27.11.2013 01:38 3,1 C 2,2 C 97 % 1033,2 hPa 0,0 l/m 0 min 0 min 0,0 UV-I 0 W/m 5,1 km/h (1 Bft)
27.11.2013 01:40 3,1 C 2,2 C 97 % 1033,2 hPa 0,0 l/m 0 min 0 min 0,0 UV-I 0 W/m 0,0 km/h (0 Bft)
27.11.2013 01:42 3,1 C 2,2 C 97 % 1033,2 hPa 0,0 l/m 0 min 0 min 0,0 UV-I 0 W/m 2,6 km/h (1 Bft)
27.11.2013 01:44 3,1 C 2,2 C 97 % 1033,2 hPa 0,0 l/m 0 min 0 min 0,0 UV-I 0 W/m 0,0 km/h (0 Bft)
27.11.2013 01:46 3,1 C 2,2 C 97 % 1033,2 hPa 0,0 l/m 0 min 0 min 0,0 UV-I 0 W/m 2,6 km/h (1 Bft)
27.11.2013 01:48 3,1 C 2,2 C 97 % 1033,2 hPa 0,0 l/m 0 min 0 min 0,0 UV-I 0 W/m 0,0 km/h (0 Bft)
27.11.2013 01:50 3,1 C 2,2 C 97 % 1033,2 hPa 0,0 l/m 0 min 0 min 0,0 UV-I 0 W/m 0,0 km/h (0 Bft)
27.11.2013 01:52 3,1 C 2,2 C 97 % 1033,2 hPa 0,0 l/m 0 min 0 min 0,0 UV-I 0 W/m 5,1 km/h (1 Bft)
27.11.2013 01:54 3,1 C 2,2 C 97 % 1033,1 hPa 0,0 l/m 0 min 0 min 0,0 UV-I 0 W/m 0,0 km/h (0 Bft)
27.11.2013 01:56 3,1 C 2,2 C 97 % 1033,2 hPa 0,0 l/m 0 min 0 min 0,0 UV-I 0 W/m 7,7 km/h (2 Bft)
27.11.2013 01:58 3,1 C 2,2 C 97 % 1033,1 hPa 0,0 l/m 0 min 0 min 0,0 UV-I 0 W/m 2,6 km/h (1 Bft)
27.11.2013 02:00 3,1 C 2,2 C 97 % 1032,9 hPa 0,0 l/m 0 min 0 min 0,0 UV-I 0 W/m 0,0 km/h (0 Bft)
27.11.2013 02:02 3,1 C 2,2 C 97 % 1033,1 hPa 0,0 l/m 0 min 0 min 0,0 UV-I 0 W/m 7,7 km/h (2 Bft)
27.11.2013 02:04 3,1 C 2,2 C 97 % 1033,0 hPa 0,0 l/m 0 min 0 min 0,0 UV-I 0 W/m 0,0 km/h (0 Bft)
27.11.2013 02:06 3,1 C 2,2 C 97 % 1033,0 hPa 0,0 l/m 0 min 0 min 0,0 UV-I 0 W/m 0,0 km/h (0 Bft)
27.11.2013 02:08 3,1 C 2,2 C 97 % 1033,0 hPa 0,0 l/m 0 min 0 min 0,0 UV-I 0 W/m 0,0 km/h (0 Bft)
27.11.2013 02:10 3,1 C 2,2 C 97 % 1033,0 hPa 0,0 l/m 0 min 0 min 0,0 UV-I 0 W/m 0,0 km/h (0 Bft)
27.11.2013 02:12 3,1 C 2,2 C 97 % 1032,9 hPa 0,0 l/m 0 min 0 min 0,0 UV-I 0 W/m 0,0 km/h (0 Bft)
27.11.2013 02:14 3,2 C 2,2 C 97 % 1032,9 hPa 0,0 l/m 0 min 0 min 0,0 UV-I 0 W/m 5,1 km/h (1 Bft)
27.11.2013 02:16 3,1 C 2,2 C 97 % 1033,0 hPa 0,0 l/m 0 min 0 min 0,0 UV-I 0 W/m 2,6 km/h (1 Bft)
27.11.2013 02:18 3,2 C 2,2 C 97 % 1032,9 hPa 0,0 l/m 0 min 0 min 0,0 UV-I 0 W/m 5,1 km/h (1 Bft)
27.11.2013 02:20 3,2 C 2,2 C 97 % 1032,9 hPa 0,0 l/m 0 min 0 min 0,0 UV-I 0 W/m 7,7 km/h (2 Bft)
27.11.2013 02:22 3,2 C 2,2 C 97 % 1033,0 hPa 0,0 l/m 0 min 0 min 0,0 UV-I 0 W/m 10,3 km/h (2 Bft)
27.11.2013 02:24 3,2 C 2,2 C 97 % 1033,1 hPa 0,0 l/m 0 min 0 min 0,0 UV-I 0 W/m 2,6 km/h (1 Bft)
27.11.2013 02:26 3,2 C 2,2 C 97 % 1033,0 hPa 0,0 l/m 0 min 0 min 0,0 UV-I 0 W/m 7,7 km/h (2 Bft)
27.11.2013 02:28 3,2 C 2,2 C 97 % 1033,1 hPa 0,0 l/m 0 min 0 min 0,0 UV-I 0 W/m 5,1 km/h (1 Bft)
27.11.2013 02:30 3,2 C 2,2 C 97 % 1033,1 hPa 0,0 l/m 0 min 0 min 0,0 UV-I 0 W/m 0,0 km/h (0 Bft)
27.11.2013 02:32 3,2 C 2,2 C 97 % 1033,1 hPa 0,0 l/m 0 min 0 min 0,0 UV-I 0 W/m 2,6 km/h (1 Bft)
27.11.2013 02:34 3,2 C 2,2 C 97 % 1033,1 hPa 0,0 l/m 0 min 0 min 0,0 UV-I 0 W/m 7,7 km/h (2 Bft)
27.11.2013 02:36 3,2 C 2,2 C 97 % 1033,1 hPa 0,0 l/m 0 min 0 min 0,0 UV-I 0 W/m 7,7 km/h (2 Bft)
27.11.2013 02:38 3,2 C 2,2 C 97 % 1033,1 hPa 0,0 l/m 0 min 0 min 0,0 UV-I 0 W/m 7,7 km/h (2 Bft)
27.11.2013 02:40 3,2 C 2,2 C 97 % 1033,1 hPa 0,0 l/m 0 min 0 min 0,0 UV-I 0 W/m 7,7 km/h (2 Bft)
27.11.2013 02:42 3,2 C 2,2 C 97 % 1033,1 hPa 0,0 l/m 0 min 0 min 0,0 UV-I 0 W/m 7,7 km/h (2 Bft)
27.11.2013 02:44 3,2 C 2,2 C 97 % 1033,1 hPa 0,0 l/m 0 min 0 min 0,0 UV-I 0 W/m 12,9 km/h (3 Bft)
27.11.2013 02:46 3,1 C 2,2 C 97 % 1033,1 hPa 0,0 l/m 0 min 0 min 0,0 UV-I 0 W/m 10,3 km/h (2 Bft)
27.11.2013 02:48 3,1 C 2,2 C 97 % 1033,1 hPa 0,0 l/m 0 min 0 min 0,0 UV-I 0 W/m 10,3 km/h (2 Bft)
27.11.2013 02:50 3,1 C 2,2 C 97 % 1033,1 hPa 0,0 l/m 0 min 0 min 0,0 UV-I 0 W/m 10,3 km/h (2 Bft)
27.11.2013 02:52 3,1 C 2,2 C 97 % 1033,1 hPa 0,0 l/m 0 min 0 min 0,0 UV-I 0 W/m 10,3 km/h (2 Bft)
27.11.2013 02:54 3,1 C 2,2 C 97 % 1033,0 hPa 0,0 l/m 0 min 0 min 0,0 UV-I 0 W/m 0,0 km/h (0 Bft)
27.11.2013 02:56 3,1 C 2,2 C 97 % 1033,0 hPa 0,0 l/m 0 min 0 min 0,0 UV-I 0 W/m 5,1 km/h (1 Bft)
27.11.2013 02:58 3,1 C 2,2 C 97 % 1033,1 hPa 0,0 l/m 0 min 0 min 0,0 UV-I 0 W/m 0,0 km/h (0 Bft)
27.11.2013 03:00 3,1 C 2,2 C 97 % 1033,1 hPa 0,0 l/m 0 min 0 min 0,0 UV-I 0 W/m 10,3 km/h (2 Bft)
27.11.2013 03:02 3,1 C 2,2 C 97 % 1033,1 hPa 0,0 l/m 0 min 0 min 0,0 UV-I 0 W/m 2,6 km/h (1 Bft)
27.11.2013 03:04 3,1 C 2,2 C 97 % 1033,1 hPa 0,0 l/m 0 min 0 min 0,0 UV-I 0 W/m 5,1 km/h (1 Bft)
27.11.2013 03:06 3,1 C 2,2 C 97 % 1033,1 hPa 0,0 l/m 0 min 0 min 0,0 UV-I 0 W/m 7,7 km/h (2 Bft)
27.11.2013 03:08 3,1 C 2,2 C 97 % 1033,1 hPa 0,0 l/m 0 min 0 min 0,0 UV-I 0 W/m 5,1 km/h (1 Bft)
27.11.2013 03:10 3,1 C 2,2 C 97 % 1033,0 hPa 0,0 l/m 0 min 0 min 0,0 UV-I 0 W/m 2,6 km/h (1 Bft)
27.11.2013 03:12 3,1 C 2,2 C 97 % 1033,0 hPa 0,0 l/m 0 min 0 min 0,0 UV-I 0 W/m 5,1 km/h (1 Bft)
27.11.2013 03:14 3,1 C 2,2 C 97 % 1033,0 hPa 0,0 l/m 0 min 0 min 0,0 UV-I 0 W/m 0,0 km/h (0 Bft)
27.11.2013 03:16 3,0 C 2,2 C 97 % 1032,9 hPa 0,0 l/m 0 min 0 min 0,0 UV-I 0 W/m 2,6 km/h (1 Bft)
27.11.2013 03:18 3,0 C 2,2 C 97 % 1032,9 hPa 0,0 l/m 0 min 0 min 0,0 UV-I 0 W/m 7,7 km/h (2 Bft)
27.11.2013 03:20 3,0 C 2,2 C 97 % 1033,0 hPa 0,0 l/m 0 min 0 min 0,0 UV-I 0 W/m 0,0 km/h (0 Bft)
27.11.2013 03:22 3,0 C 2,2 C 97 % 1033,0 hPa 0,0 l/m 0 min 0 min 0,0 UV-I 0 W/m 7,7 km/h (2 Bft)
27.11.2013 03:24 3,0 C 2,2 C 97 % 1033,0 hPa 0,0 l/m 0 min 0 min 0,0 UV-I 0 W/m 2,6 km/h (1 Bft)
27.11.2013 03:26 3,0 C 2,2 C 97 % 1033,0 hPa 0,0 l/m 0 min 0 min 0,0 UV-I 0 W/m 2,6 km/h (1 Bft)
27.11.2013 03:28 3,0 C 2,2 C 97 % 1033,0 hPa 0,0 l/m 0 min 0 min 0,0 UV-I 0 W/m 7,7 km/h (2 Bft)
27.11.2013 03:30 3,0 C 2,2 C 97 % 1033,0 hPa 0,0 l/m 0 min 0 min 0,0 UV-I 0 W/m 10,3 km/h (2 Bft)
27.11.2013 03:32 3,0 C 2,2 C 97 % 1033,0 hPa 0,0 l/m 0 min 0 min 0,0 UV-I 0 W/m 0,0 km/h (0 Bft)
27.11.2013 03:34 3,0 C 2,2 C 97 % 1033,0 hPa 0,0 l/m 0 min 0 min 0,0 UV-I 0 W/m 5,1 km/h (1 Bft)
27.11.2013 03:36 3,0 C 2,2 C 97 % 1033,0 hPa 0,0 l/m 0 min 0 min 0,0 UV-I 0 W/m 10,3 km/h (2 Bft)
27.11.2013 03:38 3,0 C 2,2 C 97 % 1033,1 hPa 0,0 l/m 0 min 0 min 0,0 UV-I 0 W/m 0,0 km/h (0 Bft)
27.11.2013 03:40 3,0 C 2,2 C 97 % 1033,0 hPa 0,0 l/m 0 min 0 min 0,0 UV-I 0 W/m 0,0 km/h (0 Bft)
27.11.2013 03:42 2,9 C 2,2 C 97 % 1033,0 hPa 0,0 l/m 0 min 0 min 0,0 UV-I 0 W/m 0,0 km/h (0 Bft)
27.11.2013 03:44 2,9 C 2,2 C 97 % 1033,0 hPa 0,0 l/m 0 min 0 min 0,0 UV-I 0 W/m 0,0 km/h (0 Bft)
27.11.2013 03:46 2,9 C 2,2 C 97 % 1033,0 hPa 0,0 l/m 0 min 0 min 0,0 UV-I 0 W/m 0,0 km/h (0 Bft)
27.11.2013 03:48 2,9 C 2,2 C 97 % 1033,0 hPa 0,0 l/m 0 min 0 min 0,0 UV-I 0 W/m 0,0 km/h (0 Bft)
27.11.2013 03:50 2,9 C 2,2 C 97 % 1032,9 hPa 0,0 l/m 0 min 0 min 0,0 UV-I 0 W/m 0,0 km/h (0 Bft)
27.11.2013 03:52 2,9 C 2,2 C 97 % 1032,8 hPa 0,0 l/m 0 min 0 min 0,0 UV-I 0 W/m 0,0 km/h (0 Bft)
27.11.2013 03:54 2,9 C 2,2 C 97 % 1032,8 hPa 0,0 l/m 0 min 0 min 0,0 UV-I 0 W/m 0,0 km/h (0 Bft)
27.11.2013 03:56 2,9 C 2,2 C 97 % 1032,8 hPa 0,0 l/m 0 min 0 min 0,0 UV-I 0 W/m 7,7 km/h (2 Bft)
27.11.2013 03:58 2,9 C 2,2 C 97 % 1032,7 hPa 0,0 l/m 0 min 0 min 0,0 UV-I 0 W/m 0,0 km/h (0 Bft)
27.11.2013 04:00 2,9 C 2,2 C 97 % 1032,8 hPa 0,0 l/m 0 min 0 min 0,0 UV-I 0 W/m 0,0 km/h (0 Bft)
27.11.2013 04:02 2,9 C 2,2 C 97 % 1032,7 hPa 0,0 l/m 0 min 0 min 0,0 UV-I 0 W/m 0,0 km/h (0 Bft)
27.11.2013 04:04 2,9 C 2,2 C 97 % 1032,7 hPa 0,0 l/m 0 min 0 min 0,0 UV-I 0 W/m 0,0 km/h (0 Bft)
27.11.2013 04:06 2,9 C 2,2 C 97 % 1032,7 hPa 0,0 l/m 0 min 0 min 0,0 UV-I 0 W/m 2,6 km/h (1 Bft)
27.11.2013 04:08 2,9 C 2,2 C 97 % 1032,7 hPa 0,0 l/m 0 min 0 min 0,0 UV-I 0 W/m 7,7 km/h (2 Bft)
27.11.2013 04:10 2,9 C 2,2 C 97 % 1032,6 hPa 0,0 l/m 0 min 0 min 0,0 UV-I 0 W/m 0,0 km/h (0 Bft)
27.11.2013 04:12 2,9 C 2,2 C 97 % 1032,6 hPa 0,0 l/m 0 min 0 min 0,0 UV-I 0 W/m 0,0 km/h (0 Bft)
27.11.2013 04:14 2,9 C 2,2 C 97 % 1032,7 hPa 0,0 l/m 0 min 0 min 0,0 UV-I 0 W/m 0,0 km/h (0 Bft)
27.11.2013 04:16 2,9 C 2,2 C 97 % 1032,7 hPa 0,0 l/m 0 min 0 min 0,0 UV-I 0 W/m 0,0 km/h (0 Bft)
27.11.2013 04:18 2,9 C 2,2 C 97 % 1032,7 hPa 0,0 l/m 0 min 0 min 0,0 UV-I 0 W/m 0,0 km/h (0 Bft)
27.11.2013 04:20 3,0 C 2,2 C 97 % 1032,7 hPa 0,0 l/m 0 min 0 min 0,0 UV-I 0 W/m 2,6 km/h (1 Bft)
27.11.2013 04:22 3,0 C 2,2 C 97 % 1032,7 hPa 0,0 l/m 0 min 0 min 0,0 UV-I 0 W/m 5,1 km/h (1 Bft)
27.11.2013 04:24 3,0 C 2,2 C 97 % 1032,7 hPa 0,0 l/m 0 min 0 min 0,0 UV-I 0 W/m 12,9 km/h (3 Bft)
27.11.2013 04:26 3,0 C 2,2 C 97 % 1032,7 hPa 0,0 l/m 0 min 0 min 0,0 UV-I 0 W/m 0,0 km/h (0 Bft)
27.11.2013 04:28 3,0 C 2,2 C 97 % 1032,7 hPa 0,0 l/m 0 min 0 min 0,0 UV-I 0 W/m 0,0 km/h (0 Bft)
27.11.2013 04:30 3,0 C 2,2 C 97 % 1032,7 hPa 0,0 l/m 0 min 0 min 0,0 UV-I 0 W/m 0,0 km/h (0 Bft)
27.11.2013 04:32 3,0 C 2,2 C 97 % 1032,6 hPa 0,0 l/m 0 min 0 min 0,0 UV-I 0 W/m 0,0 km/h (0 Bft)
27.11.2013 04:34 3,0 C 2,2 C 97 % 1032,6 hPa 0,0 l/m 0 min 0 min 0,0 UV-I 0 W/m 0,0 km/h (0 Bft)
27.11.2013 04:36 3,0 C 2,2 C 97 % 1032,7 hPa 0,0 l/m 0 min 0 min 0,0 UV-I 0 W/m 0,0 km/h (0 Bft)
27.11.2013 04:38 3,0 C 2,2 C 97 % 1032,6 hPa 0,0 l/m 0 min 0 min 0,0 UV-I 0 W/m 0,0 km/h (0 Bft)
27.11.2013 04:40 3,0 C 2,2 C 97 % 1032,7 hPa 0,0 l/m 0 min 0 min 0,0 UV-I 0 W/m 0,0 km/h (0 Bft)
27.11.2013 04:42 3,0 C 2,2 C 97 % 1032,7 hPa 0,0 l/m 0 min 0 min 0,0 UV-I 0 W/m 0,0 km/h (0 Bft)
27.11.2013 04:44 3,0 C 2,2 C 97 % 1032,6 hPa 0,0 l/m 0 min 0 min 0,0 UV-I 0 W/m 0,0 km/h (0 Bft)
27.11.2013 04:46 3,0 C 2,2 C 97 % 1032,7 hPa 0,0 l/m 0 min 0 min 0,0 UV-I 0 W/m 0,0 km/h (0 Bft)
27.11.2013 04:48 3,0 C 2,2 C 97 % 1032,7 hPa 0,0 l/m 0 min 0 min 0,0 UV-I 0 W/m 0,0 km/h (0 Bft)
27.11.2013 04:50 3,0 C 2,2 C 97 % 1032,6 hPa 0,0 l/m 0 min 0 min 0,0 UV-I 0 W/m 2,6 km/h (1 Bft)
27.11.2013 04:52 3,0 C 2,2 C 97 % 1032,6 hPa 0,0 l/m 0 min 0 min 0,0 UV-I 0 W/m 0,0 km/h (0 Bft)
27.11.2013 04:54 3,0 C 2,2 C 97 % 1032,6 hPa 0,0 l/m 0 min 0 min 0,0 UV-I 0 W/m 5,1 km/h (1 Bft)
27.11.2013 04:56 3,0 C 2,2 C 97 % 1032,5 hPa 0,0 l/m 0 min 0 min 0,0 UV-I 0 W/m 0,0 km/h (0 Bft)
27.11.2013 04:58 3,0 C 2,2 C 97 % 1032,6 hPa 0,0 l/m 0 min 0 min 0,0 UV-I 0 W/m 0,0 km/h (0 Bft)
27.11.2013 05:00 3,1 C 2,2 C 97 % 1032,5 hPa 0,0 l/m 0 min 0 min 0,0 UV-I 0 W/m 0,0 km/h (0 Bft)
27.11.2013 05:02 3,1 C 2,2 C 97 % 1032,6 hPa 0,0 l/m 0 min 0 min 0,0 UV-I 0 W/m 0,0 km/h (0 Bft)
27.11.2013 05:04 3,1 C 2,2 C 97 % 1032,6 hPa 0,0 l/m 0 min 0 min 0,0 UV-I 0 W/m 0,0 km/h (0 Bft)
27.11.2013 05:06 3,1 C 2,2 C 97 % 1032,6 hPa 0,0 l/m 0 min 0 min 0,0 UV-I 0 W/m 0,0 km/h (0 Bft)
27.11.2013 05:08 3,1 C 2,2 C 97 % 1032,6 hPa 0,0 l/m 0 min 0 min 0,0 UV-I 0 W/m 0,0 km/h (0 Bft)
27.11.2013 05:10 3,1 C 2,2 C 97 % 1032,5 hPa 0,0 l/m 0 min 0 min 0,0 UV-I 0 W/m 0,0 km/h (0 Bft)
27.11.2013 05:12 3,1 C 2,2 C 97 % 1032,5 hPa 0,0 l/m 0 min 0 min 0,0 UV-I 0 W/m 0,0 km/h (0 Bft)
27.11.2013 05:14 3,1 C 2,2 C 97 % 1032,5 hPa 0,0 l/m 0 min 0 min 0,0 UV-I 0 W/m 0,0 km/h (0 Bft)
27.11.2013 05:16 3,1 C 2,2 C 97 % 1032,6 hPa 0,0 l/m 0 min 0 min 0,0 UV-I 0 W/m 0,0 km/h (0 Bft)
27.11.2013 05:18 3,1 C 2,2 C 97 % 1032,5 hPa 0,0 l/m 0 min 0 min 0,0 UV-I 0 W/m 0,0 km/h (0 Bft)
27.11.2013 05:20 3,1 C 2,2 C 97 % 1032,6 hPa 0,0 l/m 0 min 0 min 0,0 UV-I 0 W/m 0,0 km/h (0 Bft)
27.11.2013 05:22 3,1 C 2,2 C 97 % 1032,6 hPa 0,0 l/m 0 min 0 min 0,0 UV-I 0 W/m 0,0 km/h (0 Bft)
27.11.2013 05:24 3,1 C 2,2 C 97 % 1032,6 hPa 0,0 l/m 0 min 0 min 0,0 UV-I 0 W/m 0,0 km/h (0 Bft)
27.11.2013 05:26 3,1 C 2,2 C 97 % 1032,6 hPa 0,0 l/m 0 min 0 min 0,0 UV-I 0 W/m 0,0 km/h (0 Bft)
27.11.2013 05:28 3,1 C 2,2 C 97 % 1032,7 hPa 0,0 l/m 0 min 0 min 0,0 UV-I 0 W/m 0,0 km/h (0 Bft)
27.11.2013 05:30 3,1 C 2,2 C 97 % 1032,6 hPa 0,0 l/m 0 min 0 min 0,0 UV-I 0 W/m 0,0 km/h (0 Bft)
27.11.2013 05:32 3,1 C 2,2 C 97 % 1032,7 hPa 0,0 l/m 0 min 0 min 0,0 UV-I 0 W/m 0,0 km/h (0 Bft)
27.11.2013 05:34 3,1 C 2,2 C 97 % 1032,7 hPa 0,0 l/m 0 min 0 min 0,0 UV-I 0 W/m 0,0 km/h (0 Bft)
27.11.2013 05:36 3,1 C 2,2 C 97 % 1032,8 hPa 0,0 l/m 0 min 0 min 0,0 UV-I 0 W/m 0,0 km/h (0 Bft)
27.11.2013 05:38 3,1 C 2,2 C 97 % 1032,7 hPa 0,0 l/m 0 min 0 min 0,0 UV-I 0 W/m 0,0 km/h (0 Bft)
27.11.2013 05:40 3,1 C 2,2 C 97 % 1032,7 hPa 0,0 l/m 0 min 0 min 0,0 UV-I 0 W/m 0,0 km/h (0 Bft)
27.11.2013 05:42 3,1 C 2,2 C 97 % 1032,7 hPa 0,0 l/m 0 min 0 min 0,0 UV-I 0 W/m 0,0 km/h (0 Bft)
27.11.2013 05:44 3,1 C 2,2 C 97 % 1032,7 hPa 0,0 l/m 0 min 0 min 0,0 UV-I 0 W/m 0,0 km/h (0 Bft)
27.11.2013 05:46 3,1 C 2,2 C 97 % 1032,7 hPa 0,0 l/m 0 min 0 min 0,0 UV-I 0 W/m 0,0 km/h (0 Bft)
27.11.2013 05:48 3,1 C 2,2 C 97 % 1032,7 hPa 0,0 l/m 0 min 0 min 0,0 UV-I 0 W/m 0,0 km/h (0 Bft)
27.11.2013 05:50 3,1 C 2,2 C 97 % 1032,6 hPa 0,0 l/m 0 min 0 min 0,0 UV-I 0 W/m 0,0 km/h (0 Bft)
27.11.2013 05:52 3,1 C 2,2 C 97 % 1032,7 hPa 0,0 l/m 0 min 0 min 0,0 UV-I 0 W/m 0,0 km/h (0 Bft)
27.11.2013 05:54 3,1 C 2,2 C 97 % 1032,6 hPa 0,0 l/m 0 min 0 min 0,0 UV-I 0 W/m 0,0 km/h (0 Bft)
27.11.2013 05:56 3,1 C 2,2 C 96 % 1032,6 hPa 0,0 l/m 0 min 0 min 0,0 UV-I 0 W/m 2,6 km/h (1 Bft)
27.11.2013 05:58 3,1 C 2,2 C 96 % 1032,6 hPa 0,0 l/m 0 min 0 min 0,0 UV-I 0 W/m 0,0 km/h (0 Bft)
27.11.2013 06:00 3,1 C 2,2 C 96 % 1032,6 hPa 0,0 l/m 0 min 0 min 0,0 UV-I 0 W/m 0,0 km/h (0 Bft)
27.11.2013 06:02 3,1 C 2,2 C 96 % 1032,6 hPa 0,0 l/m 0 min 0 min 0,0 UV-I 0 W/m 10,3 km/h (2 Bft)
27.11.2013 06:04 3,0 C 2,2 C 96 % 1032,6 hPa 0,0 l/m 0 min 0 min 0,0 UV-I 0 W/m 5,1 km/h (1 Bft)
27.11.2013 06:06 3,0 C 2,2 C 97 % 1032,6 hPa 0,0 l/m 0 min 0 min 0,0 UV-I 0 W/m 10,3 km/h (2 Bft)
27.11.2013 06:08 3,1 C 2,2 C 97 % 1032,6 hPa 0,0 l/m 0 min 0 min 0,0 UV-I 0 W/m 0,0 km/h (0 Bft)
27.11.2013 06:10 3,0 C 2,2 C 97 % 1032,6 hPa 0,0 l/m 0 min 0 min 0,0 UV-I 0 W/m 5,1 km/h (1 Bft)
27.11.2013 06:12 3,0 C 2,2 C 97 % 1032,7 hPa 0,0 l/m 0 min 0 min 0,0 UV-I 0 W/m 5,1 km/h (1 Bft)
27.11.2013 06:14 3,0 C 2,2 C 97 % 1032,7 hPa 0,0 l/m 0 min 0 min 0,0 UV-I 0 W/m 10,3 km/h (2 Bft)
27.11.2013 06:16 3,0 C 2,2 C 96 % 1032,7 hPa 0,0 l/m 0 min 0 min 0,0 UV-I 0 W/m 10,3 km/h (2 Bft)
27.11.2013 06:18 3,0 C 2,2 C 96 % 1032,7 hPa 0,0 l/m 0 min 0 min 0,0 UV-I 0 W/m 7,7 km/h (2 Bft)
27.11.2013 06:20 3,0 C 2,2 C 96 % 1032,7 hPa 0,0 l/m 0 min 0 min 0,0 UV-I 0 W/m 5,1 km/h (1 Bft)
27.11.2013 06:22 3,0 C 2,2 C 96 % 1032,7 hPa 0,0 l/m 0 min 0 min 0,0 UV-I 0 W/m 0,0 km/h (0 Bft)
27.11.2013 06:24 3,0 C 2,2 C 96 % 1032,7 hPa 0,0 l/m 0 min 0 min 0,0 UV-I 0 W/m 2,6 km/h (1 Bft)
27.11.2013 06:26 3,0 C 2,2 C 96 % 1032,7 hPa 0,0 l/m 0 min 0 min 0,0 UV-I 0 W/m 0,0 km/h (0 Bft)
27.11.2013 06:28 3,0 C 2,2 C 96 % 1032,7 hPa 0,0 l/m 0 min 0 min 0,0 UV-I 0 W/m 5,1 km/h (1 Bft)
27.11.2013 06:30 3,0 C 2,2 C 96 % 1032,7 hPa 0,0 l/m 0 min 0 min 0,0 UV-I 0 W/m 5,1 km/h (1 Bft)
27.11.2013 06:32 3,0 C 2,2 C 96 % 1032,6 hPa 0,0 l/m 0 min 0 min 0,0 UV-I 0 W/m 0,0 km/h (0 Bft)
27.11.2013 06:34 3,0 C 2,2 C 96 % 1032,6 hPa 0,0 l/m 0 min 0 min 0,0 UV-I 0 W/m 7,7 km/h (2 Bft)
27.11.2013 06:36 2,9 C 2,2 C 96 % 1032,6 hPa 0,0 l/m 0 min 0 min 0,0 UV-I 0 W/m 7,7 km/h (2 Bft)
27.11.2013 06:38 2,9 C 2,2 C 96 % 1032,6 hPa 0,0 l/m 0 min 0 min 0,0 UV-I 0 W/m 7,7 km/h (2 Bft)
27.11.2013 06:40 2,9 C 2,2 C 96 % 1032,6 hPa 0,0 l/m 0 min 0 min 0,0 UV-I 0 W/m 0,0 km/h (0 Bft)
27.11.2013 06:42 2,9 C 2,2 C 96 % 1032,6 hPa 0,0 l/m 0 min 0 min 0,0 UV-I 0 W/m 7,7 km/h (2 Bft)
27.11.2013 06:44 2,9 C 2,2 C 96 % 1032,7 hPa 0,0 l/m 0 min 0 min 0,0 UV-I 0 W/m 7,7 km/h (2 Bft)
27.11.2013 06:46 2,9 C 2,2 C 96 % 1032,7 hPa 0,0 l/m 0 min 0 min 0,0 UV-I 0 W/m 7,7 km/h (2 Bft)
27.11.2013 06:48 2,9 C 2,2 C 96 % 1032,6 hPa 0,0 l/m 0 min 0 min 0,0 UV-I 0 W/m 7,7 km/h (2 Bft)
27.11.2013 06:50 2,9 C 2,2 C 96 % 1032,6 hPa 0,0 l/m 0 min 0 min 0,0 UV-I 0 W/m 2,6 km/h (1 Bft)
27.11.2013 06:52 2,9 C 2,2 C 96 % 1032,6 hPa 0,0 l/m 0 min 0 min 0,0 UV-I 0 W/m 5,1 km/h (1 Bft)
27.11.2013 06:54 2,9 C 2,2 C 96 % 1032,6 hPa 0,0 l/m 0 min 0 min 0,0 UV-I 0 W/m 0,0 km/h (0 Bft)
27.11.2013 06:56 2,9 C 2,2 C 96 % 1032,6 hPa 0,0 l/m 0 min 0 min 0,0 UV-I 0 W/m 5,1 km/h (1 Bft)
27.11.2013 06:58 2,9 C 2,2 C 96 % 1032,6 hPa 0,0 l/m 0 min 0 min 0,0 UV-I 0 W/m 5,1 km/h (1 Bft)
27.11.2013 07:00 2,9 C 2,2 C 96 % 1032,6 hPa 0,0 l/m 0 min 0 min 0,0 UV-I 0 W/m 0,0 km/h (0 Bft)
27.11.2013 07:02 2,9 C 2,2 C 96 % 1032,6 hPa 0,0 l/m 0 min 0 min 0,0 UV-I 0 W/m 2,6 km/h (1 Bft)
27.11.2013 07:04 2,9 C 2,2 C 96 % 1032,6 hPa 0,0 l/m 0 min 0 min 0,0 UV-I 0 W/m 0,0 km/h (0 Bft)
27.11.2013 07:06 2,9 C 2,2 C 96 % 1032,6 hPa 0,0 l/m 0 min 0 min 0,0 UV-I 0 W/m 2,6 km/h (1 Bft)
27.11.2013 07:08 2,9 C 2,2 C 96 % 1032,6 hPa 0,0 l/m 0 min 0 min 0,0 UV-I 0 W/m 2,6 km/h (1 Bft)
27.11.2013 07:10 2,9 C 2,2 C 96 % 1032,7 hPa 0,0 l/m 0 min 0 min 0,0 UV-I 0 W/m 5,1 km/h (1 Bft)
27.11.2013 07:12 2,9 C 2,2 C 96 % 1032,7 hPa 0,0 l/m 0 min 0 min 0,0 UV-I 0 W/m 0,0 km/h (0 Bft)
27.11.2013 07:14 2,9 C 2,2 C 96 % 1032,7 hPa 0,0 l/m 0 min 0 min 0,0 UV-I 0 W/m 0,0 km/h (0 Bft)
27.11.2013 07:16 2,9 C 2,2 C 96 % 1032,7 hPa 0,0 l/m 0 min 0 min 0,0 UV-I 0 W/m 0,0 km/h (0 Bft)
27.11.2013 07:18 2,9 C 2,2 C 96 % 1032,7 hPa 0,0 l/m 0 min 0 min 0,0 UV-I 0 W/m 7,7 km/h (2 Bft)
27.11.2013 07:20 2,8 C 2,2 C 96 % 1032,7 hPa 0,0 l/m 0 min 0 min 0,0 UV-I 0 W/m 2,6 km/h (1 Bft)
27.11.2013 07:22 2,9 C 2,2 C 96 % 1032,7 hPa 0,0 l/m 0 min 0 min 0,0 UV-I 0 W/m 2,6 km/h (1 Bft)
27.11.2013 07:24 2,9 C 2,2 C 96 % 1032,6 hPa 0,0 l/m 0 min 0 min 0,0 UV-I 0 W/m 0,0 km/h (0 Bft)
27.11.2013 07:26 2,8 C 2,2 C 96 % 1032,7 hPa 0,0 l/m 0 min 0 min 0,0 UV-I 0 W/m 0,0 km/h (0 Bft)
27.11.2013 07:28 2,8 C 2,2 C 95 % 1032,8 hPa 0,0 l/m 0 min 0 min 0,0 UV-I 0 W/m 0,0 km/h (0 Bft)
27.11.2013 07:30 2,8 C 2,2 C 95 % 1032,8 hPa 0,0 l/m 0 min 0 min 0,0 UV-I 0 W/m 2,6 km/h (1 Bft)
27.11.2013 07:32 2,8 C 2,2 C 95 % 1032,8 hPa 0,0 l/m 0 min 0 min 0,0 UV-I 0 W/m 5,1 km/h (1 Bft)
27.11.2013 07:34 2,8 C 2,2 C 95 % 1032,8 hPa 0,0 l/m 0 min 0 min 0,0 UV-I 0 W/m 5,1 km/h (1 Bft)
27.11.2013 07:36 2,8 C 2,2 C 95 % 1032,8 hPa 0,0 l/m 0 min 0 min 0,0 UV-I 0 W/m 5,1 km/h (1 Bft)
27.11.2013 07:38 2,8 C 2,2 C 95 % 1032,8 hPa 0,0 l/m 0 min 0 min 0,0 UV-I 0 W/m 7,7 km/h (2 Bft)
27.11.2013 07:40 2,8 C 2,2 C 95 % 1032,8 hPa 0,0 l/m 0 min 0 min 0,0 UV-I 0 W/m 0,0 km/h (0 Bft)
27.11.2013 07:42 2,8 C 2,2 C 95 % 1032,8 hPa 0,0 l/m 0 min 0 min 0,0 UV-I 0 W/m 5,1 km/h (1 Bft)
27.11.2013 07:44 2,8 C 2,2 C 95 % 1032,8 hPa 0,0 l/m 0 min 0 min 0,0 UV-I 0 W/m 2,6 km/h (1 Bft)
27.11.2013 07:46 2,8 C 2,2 C 95 % 1032,8 hPa 0,0 l/m 0 min 0 min 0,0 UV-I 0 W/m 5,1 km/h (1 Bft)
27.11.2013 07:48 2,8 C 2,2 C 95 % 1032,8 hPa 0,0 l/m 0 min 0 min 0,0 UV-I 0 W/m 7,7 km/h (2 Bft)
27.11.2013 07:50 2,8 C 2,2 C 95 % 1032,9 hPa 0,0 l/m 0 min 0 min 0,0 UV-I 0 W/m 7,7 km/h (2 Bft)
27.11.2013 07:52 2,8 C 1,7 C 95 % 1032,9 hPa 0,0 l/m 0 min 0 min 0,0 UV-I 0 W/m 2,6 km/h (1 Bft)
27.11.2013 07:54 2,8 C 1,7 C 95 % 1032,9 hPa 0,0 l/m 0 min 0 min 0,0 UV-I 0 W/m 10,3 km/h (2 Bft)
27.11.2013 07:56 2,8 C 1,7 C 95 % 1032,9 hPa 0,0 l/m 0 min 0 min 0,0 UV-I 0 W/m 2,6 km/h (1 Bft)
27.11.2013 07:58 2,8 C 1,7 C 95 % 1032,9 hPa 0,0 l/m 0 min 0 min 0,0 UV-I 0 W/m 2,6 km/h (1 Bft)
27.11.2013 08:00 2,7 C 1,7 C 95 % 1032,9 hPa 0,0 l/m 0 min 0 min 0,0 UV-I 5 W/m 5,1 km/h (1 Bft)
27.11.2013 08:02 2,7 C 1,7 C 95 % 1033,0 hPa 0,0 l/m 0 min 0 min 0,0 UV-I 5 W/m 0,0 km/h (0 Bft)
27.11.2013 08:04 2,7 C 1,7 C 95 % 1033,0 hPa 0,0 l/m 0 min 0 min 0,0 UV-I 5 W/m 0,0 km/h (0 Bft)
27.11.2013 08:06 2,7 C 1,7 C 95 % 1033,1 hPa 0,0 l/m 0 min 0 min 0,0 UV-I 7 W/m 0,0 km/h (0 Bft)
27.11.2013 08:08 2,7 C 1,7 C 95 % 1033,0 hPa 0,0 l/m 0 min 0 min 0,0 UV-I 7 W/m 0,0 km/h (0 Bft)
27.11.2013 08:10 2,7 C 1,7 C 95 % 1033,0 hPa 0,0 l/m 0 min 0 min 0,0 UV-I 5 W/m 7,7 km/h (2 Bft)
27.11.2013 08:12 2,7 C 1,7 C 95 % 1033,1 hPa 0,0 l/m 0 min 0 min 0,0 UV-I 5 W/m 0,0 km/h (0 Bft)
27.11.2013 08:14 2,7 C 1,7 C 95 % 1033,1 hPa 0,0 l/m 0 min 0 min 0,0 UV-I 5 W/m 2,6 km/h (1 Bft)
27.11.2013 08:16 2,7 C 1,7 C 95 % 1033,1 hPa 0,0 l/m 0 min 0 min 0,0 UV-I 5 W/m 0,0 km/h (0 Bft)
27.11.2013 08:18 2,7 C 1,7 C 95 % 1033,0 hPa 0,0 l/m 0 min 0 min 0,0 UV-I 7 W/m 5,1 km/h (1 Bft)
27.11.2013 08:20 2,7 C 1,7 C 95 % 1033,0 hPa 0,0 l/m 0 min 0 min 0,0 UV-I 9 W/m 5,1 km/h (1 Bft)
27.11.2013 08:22 2,7 C 1,7 C 95 % 1033,1 hPa 0,0 l/m 0 min 0 min 0,0 UV-I 9 W/m 7,7 km/h (2 Bft)
27.11.2013 08:24 2,7 C 1,7 C 95 % 1033,1 hPa 0,0 l/m 0 min 0 min 0,0 UV-I 12 W/m 5,1 km/h (1 Bft)
27.11.2013 08:26 2,7 C 1,7 C 95 % 1033,0 hPa 0,0 l/m 0 min 0 min 0,0 UV-I 12 W/m 0,0 km/h (0 Bft)
27.11.2013 08:28 2,7 C 1,7 C 95 % 1033,0 hPa 0,0 l/m 0 min 0 min 0,0 UV-I 14 W/m 7,7 km/h (2 Bft)
27.11.2013 08:30 2,6 C 1,7 C 95 % 1033,1 hPa 0,0 l/m 0 min 0 min 0,0 UV-I 16 W/m 7,7 km/h (2 Bft)
27.11.2013 08:32 2,6 C 1,7 C 95 % 1033,0 hPa 0,0 l/m 0 min 0 min 0,0 UV-I 18 W/m 0,0 km/h (0 Bft)
27.11.2013 08:34 2,6 C 1,7 C 95 % 1033,1 hPa 0,0 l/m 0 min 0 min 0,0 UV-I 19 W/m 5,1 km/h (1 Bft)
27.11.2013 08:36 2,6 C 1,7 C 95 % 1033,1 hPa 0,0 l/m 0 min 0 min 0,0 UV-I 23 W/m 5,1 km/h (1 Bft)
27.11.2013 08:38 2,6 C 1,7 C 95 % 1033,0 hPa 0,0 l/m 0 min 0 min 0,0 UV-I 25 W/m 7,7 km/h (2 Bft)
27.11.2013 08:40 2,6 C 1,7 C 95 % 1033,1 hPa 0,0 l/m 0 min 0 min 0,0 UV-I 25 W/m 7,7 km/h (2 Bft)
27.11.2013 08:42 2,6 C 1,7 C 95 % 1033,1 hPa 0,0 l/m 0 min 0 min 0,0 UV-I 28 W/m 7,7 km/h (2 Bft)
27.11.2013 08:44 2,6 C 1,7 C 95 % 1033,1 hPa 0,0 l/m 0 min 0 min 0,0 UV-I 30 W/m 5,1 km/h (1 Bft)
27.11.2013 08:46 2,6 C 2,2 C 95 % 1033,1 hPa 0,0 l/m 0 min 0 min 0,0 UV-I 33 W/m 2,6 km/h (1 Bft)
27.11.2013 08:48 2,6 C 2,2 C 95 % 1033,2 hPa 0,0 l/m 0 min 0 min 0,0 UV-I 37 W/m 7,7 km/h (2 Bft)
27.11.2013 08:50 2,6 C 2,2 C 95 % 1033,3 hPa 0,0 l/m 0 min 0 min 0,0 UV-I 39 W/m 7,7 km/h (2 Bft)
27.11.2013 08:52 2,6 C 2,2 C 95 % 1033,3 hPa 0,0 l/m 0 min 0 min 0,0 UV-I 39 W/m 0,0 km/h (0 Bft)
27.11.2013 08:54 2,6 C 2,2 C 95 % 1033,4 hPa 0,0 l/m 0 min 0 min 0,0 UV-I 35 W/m 10,3 km/h (2 Bft)
27.11.2013 08:56 2,6 C 2,2 C 95 % 1033,4 hPa 0,0 l/m 0 min 0 min 0,0 UV-I 32 W/m 5,1 km/h (1 Bft)
27.11.2013 08:58 2,6 C 2,2 C 95 % 1033,3 hPa 0,0 l/m 0 min 0 min 0,0 UV-I 28 W/m 2,6 km/h (1 Bft)
27.11.2013 09:00 2,6 C 2,2 C 95 % 1033,4 hPa 0,0 l/m 0 min 0 min 0,0 UV-I 28 W/m 2,6 km/h (1 Bft)
27.11.2013 09:02 2,6 C 2,2 C 95 % 1033,4 hPa 0,0 l/m 0 min 0 min 0,0 UV-I 28 W/m 7,7 km/h (2 Bft)
27.11.2013 09:04 2,6 C 2,2 C 95 % 1033,5 hPa 0,0 l/m 0 min 0 min 0,0 UV-I 28 W/m 7,7 km/h (2 Bft)
27.11.2013 09:06 2,6 C 2,2 C 95 % 1033,5 hPa 0,0 l/m 0 min 0 min 0,0 UV-I 28 W/m 12,9 km/h (3 Bft)
27.11.2013 09:08 2,6 C 2,2 C 95 % 1033,5 hPa 0,0 l/m 0 min 0 min 0,0 UV-I 28 W/m 10,3 km/h (2 Bft)
27.11.2013 09:10 2,6 C 2,2 C 95 % 1033,5 hPa 0,0 l/m 0 min 0 min 0,0 UV-I 30 W/m 10,3 km/h (2 Bft)
27.11.2013 09:12 2,6 C 2,2 C 95 % 1033,5 hPa 0,0 l/m 0 min 0 min 0,0 UV-I 28 W/m 7,7 km/h (2 Bft)
27.11.2013 09:14 2,6 C 2,2 C 95 % 1033,5 hPa 0,0 l/m 0 min 0 min 0,0 UV-I 30 W/m 0,0 km/h (0 Bft)
27.11.2013 09:16 2,6 C 2,2 C 95 % 1033,5 hPa 0,0 l/m 0 min 0 min 0,0 UV-I 32 W/m 10,3 km/h (2 Bft)
27.11.2013 09:18 2,7 C 2,2 C 95 % 1033,4 hPa 0,0 l/m 0 min 0 min 0,0 UV-I 33 W/m 7,7 km/h (2 Bft)
27.11.2013 09:20 2,7 C 2,2 C 95 % 1033,4 hPa 0,0 l/m 0 min 0 min 0,0 UV-I 33 W/m 12,9 km/h (3 Bft)
27.11.2013 09:22 2,7 C 2,2 C 95 % 1033,5 hPa 0,0 l/m 0 min 0 min 0,0 UV-I 35 W/m 10,3 km/h (2 Bft)
27.11.2013 09:24 2,7 C 2,2 C 95 % 1033,5 hPa 0,0 l/m 0 min 0 min 0,0 UV-I 35 W/m 10,3 km/h (2 Bft)
27.11.2013 09:26 2,7 C 2,2 C 95 % 1033,5 hPa 0,0 l/m 0 min 0 min 0,0 UV-I 37 W/m 5,1 km/h (1 Bft)
27.11.2013 09:28 2,7 C 2,2 C 95 % 1033,5 hPa 0,0 l/m 0 min 0 min 0,0 UV-I 42 W/m 7,7 km/h (2 Bft)
27.11.2013 09:30 2,7 C 2,2 C 95 % 1033,5 hPa 0,0 l/m 0 min 0 min 0,0 UV-I 42 W/m 7,7 km/h (2 Bft)
27.11.2013 09:32 2,7 C 2,2 C 95 % 1033,5 hPa 0,0 l/m 0 min 0 min 0,0 UV-I 42 W/m 10,3 km/h (2 Bft)
27.11.2013 09:34 2,7 C 2,2 C 95 % 1033,5 hPa 0,0 l/m 0 min 0 min 0,0 UV-I 44 W/m 7,7 km/h (2 Bft)
27.11.2013 09:36 2,7 C 2,2 C 95 % 1033,5 hPa 0,0 l/m 0 min 0 min 0,0 UV-I 46 W/m 2,6 km/h (1 Bft)
27.11.2013 09:38 2,7 C 2,2 C 95 % 1033,6 hPa 0,0 l/m 0 min 0 min 0,0 UV-I 46 W/m 5,1 km/h (1 Bft)
27.11.2013 09:40 2,7 C 2,2 C 95 % 1033,6 hPa 0,0 l/m 0 min 0 min 0,0 UV-I 47 W/m 0,0 km/h (0 Bft)
27.11.2013 09:42 2,7 C 2,2 C 95 % 1033,6 hPa 0,0 l/m 0 min 0 min 0,0 UV-I 47 W/m 5,1 km/h (1 Bft)
27.11.2013 09:44 2,7 C 2,2 C 95 % 1033,6 hPa 0,0 l/m 0 min 0 min 0,0 UV-I 47 W/m 0,0 km/h (0 Bft)
27.11.2013 09:46 2,7 C 2,8 C 95 % 1033,6 hPa 0,0 l/m 0 min 0 min 0,0 UV-I 47 W/m 7,7 km/h (2 Bft)
27.11.2013 09:48 2,8 C 2,8 C 95 % 1033,6 hPa 0,0 l/m 0 min 0 min 0,0 UV-I 49 W/m 7,7 km/h (2 Bft)
27.11.2013 09:50 2,8 C 2,8 C 95 % 1033,6 hPa 0,0 l/m 0 min 0 min 0,0 UV-I 53 W/m 5,1 km/h (1 Bft)
27.11.2013 09:52 2,8 C 2,8 C 95 % 1033,6 hPa 0,0 l/m 0 min 0 min 0,0 UV-I 60 W/m 5,1 km/h (1 Bft)
27.11.2013 09:54 2,8 C 2,8 C 95 % 1033,6 hPa 0,0 l/m 0 min 0 min 0,0 UV-I 63 W/m 10,3 km/h (2 Bft)
27.11.2013 09:56 2,8 C 2,8 C 95 % 1033,6 hPa 0,0 l/m 0 min 0 min 0,0 UV-I 65 W/m 7,7 km/h (2 Bft)
27.11.2013 09:58 2,9 C 2,8 C 95 % 1033,6 hPa 0,0 l/m 0 min 0 min 0,0 UV-I 65 W/m 0,0 km/h (0 Bft)
27.11.2013 10:00 2,9 C 2,8 C 95 % 1033,7 hPa 0,0 l/m 0 min 0 min 0,0 UV-I 63 W/m 7,7 km/h (2 Bft)
27.11.2013 10:02 2,9 C 2,8 C 95 % 1033,6 hPa 0,0 l/m 0 min 0 min 0,0 UV-I 63 W/m 7,7 km/h (2 Bft)
27.11.2013 10:04 2,9 C 2,8 C 95 % 1033,6 hPa 0,0 l/m 0 min 0 min 0,0 UV-I 67 W/m 7,7 km/h (2 Bft)
27.11.2013 10:06 2,9 C 2,8 C 95 % 1033,6 hPa 0,0 l/m 0 min 0 min 0,0 UV-I 67 W/m 7,7 km/h (2 Bft)
27.11.2013 10:08 3,0 C 2,8 C 95 % 1033,6 hPa 0,0 l/m 0 min 0 min 0,0 UV-I 67 W/m 0,0 km/h (0 Bft)
27.11.2013 10:10 3,0 C 2,8 C 95 % 1033,5 hPa 0,0 l/m 0 min 0 min 0,0 UV-I 67 W/m 5,1 km/h (1 Bft)
27.11.2013 10:12 3,0 C 2,8 C 95 % 1033,6 hPa 0,0 l/m 0 min 0 min 0,0 UV-I 67 W/m 10,3 km/h (2 Bft)
27.11.2013 10:14 3,1 C 2,8 C 95 % 1033,6 hPa 0,0 l/m 0 min 0 min 0,0 UV-I 70 W/m 7,7 km/h (2 Bft)
27.11.2013 10:16 3,1 C 2,8 C 95 % 1033,6 hPa 0,0 l/m 0 min 0 min 0,0 UV-I 77 W/m 7,7 km/h (2 Bft)
27.11.2013 10:18 3,2 C 3,3 C 95 % 1033,6 hPa 0,0 l/m 0 min 0 min 0,0 UV-I 83 W/m 10,3 km/h (2 Bft)
27.11.2013 10:20 3,3 C 3,3 C 95 % 1033,6 hPa 0,0 l/m 0 min 0 min 0,0 UV-I 93 W/m 0,0 km/h (0 Bft)
27.11.2013 10:22 3,3 C 3,3 C 95 % 1033,6 hPa 0,0 l/m 0 min 0 min 0,0 UV-I 98 W/m 0,0 km/h (0 Bft)
27.11.2013 10:24 3,4 C 3,3 C 95 % 1033,6 hPa 0,0 l/m 0 min 0 min 0,0 UV-I 100 W/m 0,0 km/h (0 Bft)
27.11.2013 10:26 3,4 C 3,3 C 94 % 1033,6 hPa 0,0 l/m 0 min 0 min 0,0 UV-I 93 W/m 5,1 km/h (1 Bft)
27.11.2013 10:28 3,5 C 3,3 C 94 % 1033,6 hPa 0,0 l/m 0 min 0 min 0,0 UV-I 90 W/m 5,1 km/h (1 Bft)
27.11.2013 10:30 3,6 C 3,3 C 94 % 1033,6 hPa 0,0 l/m 0 min 0 min 0,0 UV-I 86 W/m 0,0 km/h (0 Bft)
27.11.2013 10:32 3,7 C 3,3 C 94 % 1033,6 hPa 0,0 l/m 0 min 0 min 0,0 UV-I 83 W/m 5,1 km/h (1 Bft)
27.11.2013 10:34 3,7 C 3,3 C 94 % 1033,6 hPa 0,0 l/m 0 min 0 min 0,0 UV-I 79 W/m 2,6 km/h (1 Bft)
27.11.2013 10:36 3,8 C 3,3 C 94 % 1033,6 hPa 0,0 l/m 0 min 0 min 0,0 UV-I 76 W/m 0,0 km/h (0 Bft)
27.11.2013 10:38 3,8 C 3,3 C 94 % 1033,6 hPa 0,0 l/m 0 min 0 min 0,0 UV-I 79 W/m 0,0 km/h (0 Bft)
27.11.2013 10:40 3,8 C 3,3 C 94 % 1033,7 hPa 0,0 l/m 0 min 0 min 0,0 UV-I 79 W/m 0,0 km/h (0 Bft)
27.11.2013 10:42 3,8 C 3,3 C 93 % 1033,7 hPa 0,0 l/m 0 min 0 min 0,0 UV-I 79 W/m 5,1 km/h (1 Bft)
27.11.2013 10:44 3,8 C 3,3 C 93 % 1033,7 hPa 0,0 l/m 0 min 0 min 0,0 UV-I 79 W/m 5,1 km/h (1 Bft)
27.11.2013 10:46 3,8 C 3,3 C 93 % 1033,7 hPa 0,0 l/m 0 min 0 min 0,0 UV-I 77 W/m 10,3 km/h (2 Bft)
27.11.2013 10:48 3,8 C 3,3 C 93 % 1033,6 hPa 0,0 l/m 0 min 0 min 0,0 UV-I 77 W/m 10,3 km/h (2 Bft)
27.11.2013 10:50 3,7 C 3,3 C 93 % 1033,6 hPa 0,0 l/m 0 min 0 min 0,0 UV-I 74 W/m 15,4 km/h (3 Bft)
27.11.2013 10:52 3,7 C 3,3 C 93 % 1033,5 hPa 0,0 l/m 0 min 0 min 0,0 UV-I 70 W/m 10,3 km/h (2 Bft)
27.11.2013 10:54 3,7 C 3,3 C 93 % 1033,5 hPa 0,0 l/m 0 min 0 min 0,0 UV-I 69 W/m 12,9 km/h (3 Bft)
27.11.2013 10:56 3,7 C 3,3 C 93 % 1033,5 hPa 0,0 l/m 0 min 0 min 0,0 UV-I 67 W/m 12,9 km/h (3 Bft)
27.11.2013 10:58 3,7 C 3,3 C 93 % 1033,6 hPa 0,0 l/m 0 min 0 min 0,0 UV-I 69 W/m 10,3 km/h (2 Bft)
27.11.2013 11:00 3,7 C 3,3 C 93 % 1033,5 hPa 0,0 l/m 0 min 0 min 0,0 UV-I 72 W/m 15,4 km/h (3 Bft)
27.11.2013 11:02 3,7 C 3,3 C 93 % 1033,5 hPa 0,0 l/m 0 min 0 min 0,0 UV-I 77 W/m 7,7 km/h (2 Bft)
27.11.2013 11:04 3,7 C 3,3 C 93 % 1033,6 hPa 0,0 l/m 0 min 0 min 0,0 UV-I 86 W/m 12,9 km/h (3 Bft)
27.11.2013 11:06 3,8 C 3,3 C 93 % 1033,5 hPa 0,0 l/m 0 min 0 min 0,0 UV-I 97 W/m 7,7 km/h (2 Bft)
27.11.2013 11:08 3,8 C 3,9 C 93 % 1033,5 hPa 0,0 l/m 0 min 0 min 0,0 UV-I 97 W/m 7,7 km/h (2 Bft)
27.11.2013 11:10 3,9 C 3,9 C 93 % 1033,4 hPa 0,0 l/m 0 min 0 min 0,0 UV-I 98 W/m 7,7 km/h (2 Bft)
27.11.2013 11:12 3,9 C 3,9 C 93 % 1033,5 hPa 0,0 l/m 0 min 0 min 0,0 UV-I 104 W/m 10,3 km/h (2 Bft)
27.11.2013 11:14 3,9 C 3,9 C 93 % 1033,5 hPa 0,0 l/m 0 min 0 min 0,0 UV-I 105 W/m 10,3 km/h (2 Bft)
27.11.2013 11:16 3,9 C 3,9 C 93 % 1033,4 hPa 0,0 l/m 0 min 0 min 0,0 UV-I 109 W/m 10,3 km/h (2 Bft)
27.11.2013 11:18 4,0 C 3,9 C 93 % 1033,4 hPa 0,0 l/m 0 min 0 min 0,0 UV-I 113 W/m 10,3 km/h (2 Bft)
27.11.2013 11:20 4,0 C 3,9 C 93 % 1033,5 hPa 0,0 l/m 0 min 0 min 0,0 UV-I 121 W/m 10,3 km/h (2 Bft)
27.11.2013 11:22 4,1 C 3,9 C 92 % 1033,4 hPa 0,0 l/m 0 min 0 min 0,0 UV-I 125 W/m 15,4 km/h (3 Bft)
27.11.2013 11:24 4,1 C 3,9 C 93 % 1033,4 hPa 0,0 l/m 0 min 0 min 0,0 UV-I 128 W/m 12,9 km/h (3 Bft)
27.11.2013 11:26 4,1 C 3,9 C 93 % 1033,3 hPa 0,0 l/m 0 min 0 min 0,0 UV-I 135 W/m 12,9 km/h (3 Bft)
27.11.2013 11:28 4,1 C 3,9 C 92 % 1033,3 hPa 0,0 l/m 0 min 0 min 0,0 UV-I 130 W/m 12,9 km/h (3 Bft)
27.11.2013 11:30 4,2 C 3,9 C 92 % 1033,3 hPa 0,0 l/m 0 min 0 min 0,0 UV-I 121 W/m 12,9 km/h (3 Bft)
27.11.2013 11:32 4,2 C 3,9 C 92 % 1033,4 hPa 0,0 l/m 0 min 0 min 0,0 UV-I 109 W/m 7,7 km/h (2 Bft)
27.11.2013 11:34 4,2 C 3,9 C 92 % 1033,4 hPa 0,0 l/m 0 min 0 min 0,0 UV-I 104 W/m 15,4 km/h (3 Bft)
27.11.2013 11:36 4,2 C 3,9 C 92 % 1033,5 hPa 0,0 l/m 0 min 0 min 0,0 UV-I 104 W/m 10,3 km/h (2 Bft)
27.11.2013 11:38 4,3 C 3,9 C 92 % 1033,4 hPa 0,0 l/m 0 min 0 min 0,0 UV-I 107 W/m 18,0 km/h (3 Bft)
27.11.2013 11:40 4,3 C 3,9 C 92 % 1033,3 hPa 0,0 l/m 0 min 0 min 0,0 UV-I 109 W/m 15,4 km/h (3 Bft)
27.11.2013 11:42 4,3 C 3,9 C 92 % 1033,3 hPa 0,0 l/m 0 min 0 min 0,0 UV-I 105 W/m 12,9 km/h (3 Bft)
27.11.2013 11:44 4,3 C 3,9 C 92 % 1033,4 hPa 0,0 l/m 0 min 0 min 0,0 UV-I 95 W/m 20,6 km/h (4 Bft)
27.11.2013 11:46 4,3 C 3,9 C 92 % 1033,5 hPa 0,0 l/m 0 min 0 min 0,0 UV-I 90 W/m 12,9 km/h (3 Bft)
27.11.2013 11:48 4,3 C 3,9 C 92 % 1033,5 hPa 0,0 l/m 0 min 0 min 0,0 UV-I 84 W/m 7,7 km/h (2 Bft)
27.11.2013 11:50 4,3 C 3,9 C 92 % 1033,5 hPa 0,0 l/m 0 min 0 min 0,0 UV-I 81 W/m 10,3 km/h (2 Bft)
27.11.2013 11:52 4,3 C 3,9 C 92 % 1033,5 hPa 0,0 l/m 0 min 0 min 0,0 UV-I 79 W/m 18,0 km/h (3 Bft)
27.11.2013 11:54 4,3 C 3,9 C 91 % 1033,6 hPa 0,0 l/m 0 min 0 min 0,0 UV-I 74 W/m 12,9 km/h (3 Bft)
27.11.2013 11:56 4,3 C 3,9 C 91 % 1033,5 hPa 0,0 l/m 0 min 0 min 0,0 UV-I 69 W/m 15,4 km/h (3 Bft)
27.11.2013 11:58 4,3 C 3,9 C 91 % 1033,5 hPa 0,0 l/m 0 min 0 min 0,0 UV-I 67 W/m 10,3 km/h (2 Bft)
27.11.2013 12:00 4,3 C 3,9 C 91 % 1033,5 hPa 0,0 l/m 0 min 0 min 0,0 UV-I 70 W/m 10,3 km/h (2 Bft)
27.11.2013 12:02 4,4 C 3,9 C 91 % 1033,5 hPa 0,0 l/m 0 min 0 min 0,0 UV-I 81 W/m 12,9 km/h (3 Bft)
27.11.2013 12:06 4,4 C 3,9 C 91 % 1033,6 hPa 0,0 l/m 0 min 0 min 0,0 UV-I 113 W/m 7,7 km/h (2 Bft)
27.11.2013 12:08 4,4 C 3,9 C 91 % 1033,6 hPa 0,0 l/m 0 min 0 min 0,0 UV-I 127 W/m 12,9 km/h (3 Bft)
27.11.2013 12:10 4,5 C 3,9 C 91 % 1033,5 hPa 0,0 l/m 0 min 0 min 0,0 UV-I 144 W/m 10,3 km/h (2 Bft)
27.11.2013 12:12 4,5 C 4,4 C 91 % 1033,4 hPa 0,0 l/m 0 min 0 min 0,0 UV-I 163 W/m 12,9 km/h (3 Bft)
27.11.2013 12:14 4,6 C 4,4 C 90 % 1033,3 hPa 0,0 l/m 2 min 0 min 0,0 UV-I 169 W/m 12,9 km/h (3 Bft)
27.11.2013 12:16 4,6 C 4,4 C 90 % 1033,2 hPa 0,0 l/m 0 min 0 min 0,0 UV-I 163 W/m 12,9 km/h (3 Bft)
27.11.2013 12:18 4,7 C 4,4 C 90 % 1033,3 hPa 0,0 l/m 0 min 0 min 0,0 UV-I 156 W/m 15,4 km/h (3 Bft)
27.11.2013 12:20 4,7 C 4,4 C 90 % 1033,3 hPa 0,0 l/m 0 min 0 min 0,0 UV-I 162 W/m 12,9 km/h (3 Bft)
27.11.2013 12:22 4,7 C 4,4 C 90 % 1033,3 hPa 0,0 l/m 0 min 0 min 0,0 UV-I 162 W/m 10,3 km/h (2 Bft)
27.11.2013 12:24 4,8 C 4,4 C 90 % 1033,3 hPa 0,0 l/m 0 min 0 min 0,0 UV-I 141 W/m 10,3 km/h (2 Bft)
27.11.2013 12:26 4,8 C 4,4 C 90 % 1033,3 hPa 0,0 l/m 0 min 0 min 0,0 UV-I 120 W/m 0,0 km/h (0 Bft)
27.11.2013 12:28 4,8 C 4,4 C 90 % 1033,2 hPa 0,0 l/m 0 min 0 min 0,0 UV-I 107 W/m 0,0 km/h (0 Bft)
27.11.2013 12:30 4,8 C 4,4 C 89 % 1033,3 hPa 0,0 l/m 0 min 0 min 0,0 UV-I 97 W/m 7,7 km/h (2 Bft)
27.11.2013 12:32 4,8 C 4,4 C 89 % 1033,4 hPa 0,0 l/m 0 min 0 min 0,0 UV-I 100 W/m 10,3 km/h (2 Bft)
27.11.2013 12:34 4,8 C 4,4 C 89 % 1033,4 hPa 0,0 l/m 0 min 0 min 0,0 UV-I 104 W/m 2,6 km/h (1 Bft)
27.11.2013 12:36 4,8 C 4,4 C 89 % 1033,3 hPa 0,0 l/m 0 min 0 min 0,0 UV-I 102 W/m 12,9 km/h (3 Bft)
27.11.2013 12:38 4,9 C 4,4 C 89 % 1033,2 hPa 0,0 l/m 0 min 0 min 0,0 UV-I 104 W/m 7,7 km/h (2 Bft)
27.11.2013 12:40 4,8 C 4,4 C 89 % 1033,2 hPa 0,0 l/m 0 min 0 min 0,0 UV-I 102 W/m 7,7 km/h (2 Bft)
27.11.2013 12:42 4,9 C 4,4 C 89 % 1033,2 hPa 0,0 l/m 0 min 0 min 0,0 UV-I 102 W/m 2,6 km/h (1 Bft)
27.11.2013 12:44 4,9 C 4,4 C 89 % 1033,2 hPa 0,0 l/m 0 min 0 min 0,0 UV-I 102 W/m 10,3 km/h (2 Bft)
27.11.2013 12:46 4,9 C 4,4 C 89 % 1033,2 hPa 0,0 l/m 0 min 0 min 0,0 UV-I 105 W/m 7,7 km/h (2 Bft)
27.11.2013 12:48 4,9 C 4,4 C 89 % 1033,2 hPa 0,0 l/m 0 min 0 min 0,0 UV-I 111 W/m 10,3 km/h (2 Bft)
27.11.2013 12:50 5,0 C 4,4 C 89 % 1033,3 hPa 0,0 l/m 0 min 0 min 0,0 UV-I 111 W/m 7,7 km/h (2 Bft)
27.11.2013 12:52 5,1 C 4,4 C 89 % 1033,2 hPa 0,0 l/m 0 min 0 min 0,0 UV-I 114 W/m 10,3 km/h (2 Bft)
27.11.2013 12:54 5,1 C 5,0 C 89 % 1033,2 hPa 0,0 l/m 0 min 0 min 0,0 UV-I 118 W/m 7,7 km/h (2 Bft)
27.11.2013 12:56 5,2 C 5,0 C 89 % 1033,3 hPa 0,0 l/m 0 min 0 min 0,0 UV-I 111 W/m 7,7 km/h (2 Bft)
27.11.2013 12:58 5,2 C 5,0 C 89 % 1033,2 hPa 0,0 l/m 0 min 0 min 0,0 UV-I 116 W/m 10,3 km/h (2 Bft)
27.11.2013 13:00 5,2 C 5,0 C 89 % 1033,2 hPa 0,0 l/m 0 min 0 min 0,0 UV-I 116 W/m 7,7 km/h (2 Bft)
27.11.2013 13:02 5,2 C 5,0 C 89 % 1033,2 hPa 0,0 l/m 0 min 0 min 0,0 UV-I 121 W/m 5,1 km/h (1 Bft)
27.11.2013 13:06 5,2 C 5,0 C 89 % 1033,2 hPa 0,0 l/m 0 min 0 min 0,0 UV-I 127 W/m 12,9 km/h (3 Bft)
27.11.2013 13:08 5,3 C 5,0 C 89 % 1033,2 hPa 0,0 l/m 0 min 0 min 0,0 UV-I 128 W/m 10,3 km/h (2 Bft)
27.11.2013 13:10 5,3 C 5,0 C 89 % 1033,1 hPa 0,0 l/m 0 min 0 min 0,0 UV-I 135 W/m 5,1 km/h (1 Bft)
27.11.2013 13:12 5,4 C 5,0 C 89 % 1033,2 hPa 0,0 l/m 0 min 0 min 0,0 UV-I 139 W/m 5,1 km/h (1 Bft)
27.11.2013 13:14 5,4 C 5,0 C 89 % 1033,1 hPa 0,0 l/m 0 min 0 min 0,0 UV-I 139 W/m 10,3 km/h (2 Bft)
27.11.2013 13:16 5,3 C 5,0 C 88 % 1033,1 hPa 0,0 l/m 0 min 0 min 0,0 UV-I 135 W/m 5,1 km/h (1 Bft)
27.11.2013 13:18 5,3 C 5,0 C 88 % 1033,0 hPa 0,0 l/m 0 min 0 min 0,0 UV-I 134 W/m 0,0 km/h (0 Bft)
27.11.2013 13:20 5,4 C 5,0 C 88 % 1032,9 hPa 0,0 l/m 0 min 0 min 0,0 UV-I 134 W/m 2,6 km/h (1 Bft)
27.11.2013 13:22 5,4 C 5,0 C 88 % 1032,9 hPa 0,0 l/m 0 min 0 min 0,0 UV-I 148 W/m 2,6 km/h (1 Bft)
27.11.2013 13:24 5,4 C 5,0 C 88 % 1032,9 hPa 0,0 l/m 0 min 0 min 0,0 UV-I 148 W/m 2,6 km/h (1 Bft)
27.11.2013 13:26 5,4 C 5,0 C 88 % 1032,9 hPa 0,0 l/m 0 min 0 min 0,0 UV-I 146 W/m 2,6 km/h (1 Bft)
27.11.2013 13:28 5,5 C 5,0 C 88 % 1032,9 hPa 0,0 l/m 0 min 0 min 0,0 UV-I 132 W/m 7,7 km/h (2 Bft)
27.11.2013 13:30 5,6 C 5,0 C 88 % 1032,9 hPa 0,0 l/m 0 min 0 min 0,0 UV-I 128 W/m 5,1 km/h (1 Bft)
27.11.2013 13:32 5,5 C 5,0 C 88 % 1032,8 hPa 0,0 l/m 0 min 0 min 0,0 UV-I 130 W/m 5,1 km/h (1 Bft)
27.11.2013 13:34 5,5 C 5,0 C 88 % 1032,8 hPa 0,0 l/m 0 min 0 min 0,0 UV-I 134 W/m 5,1 km/h (1 Bft)
27.11.2013 13:36 5,5 C 5,0 C 88 % 1032,8 hPa 0,0 l/m 0 min 0 min 0,0 UV-I 135 W/m 7,7 km/h (2 Bft)
27.11.2013 13:38 5,6 C 5,0 C 88 % 1032,9 hPa 0,0 l/m 0 min 0 min 0,0 UV-I 137 W/m 7,7 km/h (2 Bft)
27.11.2013 13:40 5,6 C 5,0 C 88 % 1032,8 hPa 0,0 l/m 0 min 0 min 0,0 UV-I 134 W/m 12,9 km/h (3 Bft)
27.11.2013 13:42 5,7 C 5,0 C 88 % 1032,8 hPa 0,0 l/m 0 min 0 min 0,0 UV-I 139 W/m 10,3 km/h (2 Bft)
27.11.2013 13:44 5,6 C 5,0 C 88 % 1032,8 hPa 0,0 l/m 2 min 0 min 0,0 UV-I 149 W/m 15,4 km/h (3 Bft)
27.11.2013 13:46 5,6 C 5,0 C 88 % 1032,9 hPa 0,0 l/m 0 min 0 min 0,0 UV-I 139 W/m 5,1 km/h (1 Bft)
27.11.2013 13:48 5,6 C 5,0 C 87 % 1032,8 hPa 0,0 l/m 0 min 0 min 0,0 UV-I 137 W/m 10,3 km/h (2 Bft)
27.11.2013 13:50 5,6 C 5,0 C 87 % 1032,9 hPa 0,0 l/m 0 min 0 min 0,0 UV-I 134 W/m 10,3 km/h (2 Bft)
27.11.2013 13:52 5,6 C 5,0 C 87 % 1032,8 hPa 0,0 l/m 0 min 0 min 0,0 UV-I 139 W/m 10,3 km/h (2 Bft)
27.11.2013 13:54 5,6 C 5,0 C 88 % 1032,8 hPa 0,0 l/m 0 min 0 min 0,0 UV-I 139 W/m 7,7 km/h (2 Bft)
27.11.2013 13:56 5,7 C 5,0 C 88 % 1032,8 hPa 0,0 l/m 0 min 0 min 0,0 UV-I 132 W/m 7,7 km/h (2 Bft)
27.11.2013 13:58 5,7 C 5,0 C 88 % 1032,7 hPa 0,0 l/m 0 min 0 min 0,0 UV-I 118 W/m 7,7 km/h (2 Bft)
27.11.2013 14:00 5,7 C 5,0 C 87 % 1032,7 hPa 0,0 l/m 0 min 0 min 0,0 UV-I 111 W/m 10,3 km/h (2 Bft)
27.11.2013 14:02 5,7 C 5,0 C 87 % 1032,7 hPa 0,0 l/m 0 min 0 min 0,0 UV-I 105 W/m 7,7 km/h (2 Bft)
27.11.2013 14:04 5,6 C 5,0 C 87 % 1032,7 hPa 0,0 l/m 0 min 0 min 0,0 UV-I 104 W/m 10,3 km/h (2 Bft)
27.11.2013 14:06 5,6 C 5,0 C 87 % 1032,7 hPa 0,0 l/m 0 min 0 min 0,0 UV-I 104 W/m 7,7 km/h (2 Bft)
27.11.2013 14:08 5,6 C 5,0 C 87 % 1032,7 hPa 0,0 l/m 0 min 0 min 0,0 UV-I 102 W/m 5,1 km/h (1 Bft)
27.11.2013 14:10 5,6 C 5,0 C 87 % 1032,7 hPa 0,0 l/m 0 min 0 min 0,0 UV-I 98 W/m 0,0 km/h (0 Bft)
27.11.2013 14:12 5,6 C 5,0 C 87 % 1032,7 hPa 0,0 l/m 0 min 0 min 0,0 UV-I 91 W/m 7,7 km/h (2 Bft)
27.11.2013 14:14 5,6 C 5,0 C 87 % 1032,6 hPa 0,0 l/m 0 min 0 min 0,0 UV-I 91 W/m 10,3 km/h (2 Bft)
27.11.2013 14:16 5,6 C 5,0 C 88 % 1032,6 hPa 0,0 l/m 0 min 0 min 0,0 UV-I 90 W/m 10,3 km/h (2 Bft)
27.11.2013 14:18 5,5 C 5,0 C 87 % 1032,5 hPa 0,0 l/m 0 min 0 min 0,0 UV-I 86 W/m 5,1 km/h (1 Bft)
27.11.2013 14:20 5,5 C 5,0 C 87 % 1032,5 hPa 0,0 l/m 0 min 0 min 0,0 UV-I 93 W/m 0,0 km/h (0 Bft)
27.11.2013 14:22 5,5 C 5,0 C 88 % 1032,4 hPa 0,0 l/m 0 min 0 min 0,0 UV-I 88 W/m 0,0 km/h (0 Bft)
27.11.2013 14:24 5,6 C 5,0 C 88 % 1032,5 hPa 0,0 l/m 0 min 0 min 0,0 UV-I 84 W/m 0,0 km/h (0 Bft)
27.11.2013 14:26 5,6 C 5,0 C 88 % 1032,4 hPa 0,0 l/m 0 min 0 min 0,0 UV-I 84 W/m 0,0 km/h (0 Bft)
27.11.2013 14:28 5,7 C 5,0 C 88 % 1032,4 hPa 0,0 l/m 0 min 0 min 0,0 UV-I 118 W/m 0,0 km/h (0 Bft)
27.11.2013 14:30 5,7 C 5,0 C 89 % 1032,4 hPa 0,0 l/m 0 min 0 min 0,0 UV-I 77 W/m 0,0 km/h (0 Bft)
27.11.2013 14:32 5,7 C 5,0 C 88 % 1032,4 hPa 0,0 l/m 0 min 0 min 0,0 UV-I 76 W/m 5,1 km/h (1 Bft)
27.11.2013 14:34 5,7 C 5,0 C 88 % 1032,4 hPa 0,0 l/m 0 min 0 min 0,0 UV-I 76 W/m 0,0 km/h (0 Bft)
27.11.2013 14:36 5,7 C 5,0 C 88 % 1032,4 hPa 0,0 l/m 0 min 0 min 0,0 UV-I 76 W/m 0,0 km/h (0 Bft)
27.11.2013 14:38 5,7 C 5,0 C 88 % 1032,4 hPa 0,0 l/m 0 min 0 min 0,0 UV-I 76 W/m 0,0 km/h (0 Bft)
27.11.2013 14:40 5,7 C 5,0 C 88 % 1032,4 hPa 0,0 l/m 0 min 0 min 0,0 UV-I 81 W/m 0,0 km/h (0 Bft)
27.11.2013 14:42 5,7 C 5,0 C 88 % 1032,4 hPa 0,0 l/m 0 min 0 min 0,0 UV-I 84 W/m 7,7 km/h (2 Bft)
27.11.2013 14:44 5,7 C 5,0 C 88 % 1032,4 hPa 0,0 l/m 0 min 0 min 0,0 UV-I 86 W/m 0,0 km/h (0 Bft)
27.11.2013 14:46 5,7 C 5,0 C 88 % 1032,4 hPa 0,0 l/m 0 min 0 min 0,0 UV-I 84 W/m 5,1 km/h (1 Bft)
27.11.2013 14:48 5,7 C 5,0 C 88 % 1032,4 hPa 0,0 l/m 0 min 0 min 0,0 UV-I 83 W/m 0,0 km/h (0 Bft)
27.11.2013 14:50 5,8 C 5,0 C 88 % 1032,4 hPa 0,0 l/m 0 min 0 min 0,0 UV-I 97 W/m 0,0 km/h (0 Bft)
27.11.2013 14:52 5,8 C 5,0 C 88 % 1032,4 hPa 0,0 l/m 0 min 0 min 0,0 UV-I 84 W/m 5,1 km/h (1 Bft)
27.11.2013 14:54 5,8 C 5,0 C 88 % 1032,4 hPa 0,0 l/m 0 min 0 min 0,0 UV-I 79 W/m 5,1 km/h (1 Bft)
27.11.2013 14:56 5,8 C 5,0 C 88 % 1032,5 hPa 0,0 l/m 0 min 0 min 0,0 UV-I 67 W/m 7,7 km/h (2 Bft)
27.11.2013 14:58 5,8 C 5,0 C 88 % 1032,5 hPa 0,0 l/m 0 min 0 min 0,0 UV-I 63 W/m 7,7 km/h (2 Bft)
27.11.2013 15:00 5,8 C 5,0 C 88 % 1032,5 hPa 0,0 l/m 0 min 0 min 0,0 UV-I 54 W/m 2,6 km/h (1 Bft)
27.11.2013 15:02 5,8 C 5,0 C 88 % 1032,5 hPa 0,0 l/m 0 min 0 min 0,0 UV-I 46 W/m 7,7 km/h (2 Bft)
27.11.2013 15:04 5,8 C 5,0 C 88 % 1032,5 hPa 0,0 l/m 0 min 0 min 0,0 UV-I 46 W/m 5,1 km/h (1 Bft)
27.11.2013 15:06 5,8 C 5,0 C 88 % 1032,5 hPa 0,0 l/m 0 min 0 min 0,0 UV-I 47 W/m 5,1 km/h (1 Bft)
27.11.2013 15:08 5,8 C 5,0 C 88 % 1032,4 hPa 0,0 l/m 0 min 0 min 0,0 UV-I 40 W/m 7,7 km/h (2 Bft)
27.11.2013 15:10 5,7 C 5,0 C 88 % 1032,4 hPa 0,0 l/m 0 min 0 min 0,0 UV-I 40 W/m 7,7 km/h (2 Bft)
27.11.2013 15:12 5,7 C 5,0 C 88 % 1032,4 hPa 0,0 l/m 0 min 0 min 0,0 UV-I 40 W/m 7,7 km/h (2 Bft)
27.11.2013 15:14 5,7 C 5,0 C 88 % 1032,4 hPa 0,0 l/m 0 min 0 min 0,0 UV-I 37 W/m 7,7 km/h (2 Bft)
27.11.2013 15:16 5,7 C 5,0 C 88 % 1032,4 hPa 0,0 l/m 0 min 0 min 0,0 UV-I 44 W/m 7,7 km/h (2 Bft)
27.11.2013 15:18 5,7 C 5,0 C 88 % 1032,5 hPa 0,0 l/m 0 min 0 min 0,0 UV-I 33 W/m 0,0 km/h (0 Bft)
27.11.2013 15:20 5,7 C 4,4 C 88 % 1032,4 hPa 0,0 l/m 0 min 0 min 0,0 UV-I 25 W/m 5,1 km/h (1 Bft)
27.11.2013 15:22 5,7 C 4,4 C 88 % 1032,4 hPa 0,0 l/m 0 min 0 min 0,0 UV-I 21 W/m 7,7 km/h (2 Bft)
27.11.2013 15:24 5,7 C 4,4 C 88 % 1032,3 hPa 0,0 l/m 0 min 0 min 0,0 UV-I 19 W/m 5,1 km/h (1 Bft)
27.11.2013 15:26 5,7 C 4,4 C 88 % 1032,3 hPa 0,0 l/m 0 min 0 min 0,0 UV-I 18 W/m 10,3 km/h (2 Bft)
27.11.2013 15:28 5,6 C 4,4 C 88 % 1032,3 hPa 0,0 l/m 0 min 0 min 0,0 UV-I 18 W/m 0,0 km/h (0 Bft)
27.11.2013 15:30 5,6 C 4,4 C 88 % 1032,3 hPa 0,0 l/m 0 min 0 min 0,0 UV-I 19 W/m 0,0 km/h (0 Bft)
27.11.2013 15:32 5,6 C 4,4 C 88 % 1032,2 hPa 0,0 l/m 0 min 0 min 0,0 UV-I 21 W/m 7,7 km/h (2 Bft)
27.11.2013 15:34 5,6 C 4,4 C 88 % 1032,2 hPa 0,0 l/m 0 min 0 min 0,0 UV-I 26 W/m 2,6 km/h (1 Bft)
27.11.2013 15:36 5,6 C 4,4 C 88 % 1032,2 hPa 0,0 l/m 0 min 0 min 0,0 UV-I 30 W/m 10,3 km/h (2 Bft)
27.11.2013 15:38 5,6 C 4,4 C 88 % 1032,2 hPa 0,0 l/m 0 min 0 min 0,0 UV-I 32 W/m 0,0 km/h (0 Bft)
27.11.2013 15:40 5,6 C 4,4 C 88 % 1032,1 hPa 0,0 l/m 0 min 0 min 0,0 UV-I 30 W/m 0,0 km/h (0 Bft)
27.11.2013 15:42 5,6 C 4,4 C 88 % 1032,2 hPa 0,0 l/m 0 min 0 min 0,0 UV-I 28 W/m 0,0 km/h (0 Bft)
27.11.2013 15:44 5,6 C 4,4 C 88 % 1032,2 hPa 0,0 l/m 0 min 0 min 0,0 UV-I 25 W/m 2,6 km/h (1 Bft)
27.11.2013 15:46 5,6 C 4,4 C 88 % 1032,1 hPa 0,0 l/m 0 min 0 min 0,0 UV-I 23 W/m 0,0 km/h (0 Bft)
27.11.2013 15:48 5,6 C 4,4 C 88 % 1032,2 hPa 0,0 l/m 0 min 0 min 0,0 UV-I 23 W/m 7,7 km/h (2 Bft)
27.11.2013 15:50 5,6 C 4,4 C 88 % 1032,2 hPa 0,0 l/m 0 min 0 min 0,0 UV-I 23 W/m 0,0 km/h (0 Bft)
27.11.2013 15:52 5,5 C 4,4 C 88 % 1032,2 hPa 0,0 l/m 0 min 0 min 0,0 UV-I 25 W/m 0,0 km/h (0 Bft)
27.11.2013 15:54 5,5 C 4,4 C 88 % 1032,2 hPa 0,0 l/m 0 min 0 min 0,0 UV-I 28 W/m 0,0 km/h (0 Bft)
27.11.2013 15:56 5,5 C 4,4 C 88 % 1032,2 hPa 0,0 l/m 0 min 0 min 0,0 UV-I 28 W/m 2,6 km/h (1 Bft)
27.11.2013 15:58 5,5 C 4,4 C 88 % 1032,2 hPa 0,0 l/m 0 min 0 min 0,0 UV-I 30 W/m 2,6 km/h (1 Bft)
27.11.2013 16:00 5,5 C 4,4 C 88 % 1032,2 hPa 0,0 l/m 0 min 0 min 0,0 UV-I 28 W/m 5,1 km/h (1 Bft)
27.11.2013 16:02 5,5 C 4,4 C 88 % 1032,3 hPa 0,0 l/m 0 min 0 min 0,0 UV-I 26 W/m 0,0 km/h (0 Bft)
27.11.2013 16:04 5,5 C 4,4 C 88 % 1032,3 hPa 0,0 l/m 0 min 0 min 0,0 UV-I 26 W/m 0,0 km/h (0 Bft)
27.11.2013 16:06 5,5 C 4,4 C 88 % 1032,3 hPa 0,0 l/m 0 min 0 min 0,0 UV-I 21 W/m 0,0 km/h (0 Bft)
27.11.2013 16:08 5,4 C 4,4 C 88 % 1032,3 hPa 0,0 l/m 0 min 0 min 0,0 UV-I 19 W/m 0,0 km/h (0 Bft)
27.11.2013 16:10 5,4 C 4,4 C 89 % 1032,3 hPa 0,0 l/m 0 min 0 min 0,0 UV-I 19 W/m 0,0 km/h (0 Bft)
27.11.2013 16:12 5,4 C 4,4 C 89 % 1032,3 hPa 0,0 l/m 0 min 0 min 0,0 UV-I 16 W/m 0,0 km/h (0 Bft)
27.11.2013 16:14 5,4 C 4,4 C 89 % 1032,3 hPa 0,0 l/m 0 min 0 min 0,0 UV-I 14 W/m 0,0 km/h (0 Bft)
27.11.2013 16:16 5,4 C 4,4 C 89 % 1032,3 hPa 0,0 l/m 0 min 0 min 0,0 UV-I 12 W/m 0,0 km/h (0 Bft)
27.11.2013 16:18 5,4 C 4,4 C 89 % 1032,3 hPa 0,0 l/m 0 min 0 min 0,0 UV-I 9 W/m 0,0 km/h (0 Bft)
27.11.2013 16:20 5,4 C 4,4 C 89 % 1032,3 hPa 0,0 l/m 0 min 0 min 0,0 UV-I 7 W/m 0,0 km/h (0 Bft)
27.11.2013 16:22 5,4 C 4,4 C 89 % 1032,3 hPa 0,0 l/m 0 min 0 min 0,0 UV-I 5 W/m 0,0 km/h (0 Bft)
27.11.2013 16:24 5,4 C 4,4 C 89 % 1032,4 hPa 0,0 l/m 0 min 0 min 0,0 UV-I 5 W/m 7,7 km/h (2 Bft)
27.11.2013 16:26 5,4 C 4,4 C 89 % 1032,4 hPa 0,0 l/m 0 min 0 min 0,0 UV-I 0 W/m 0,0 km/h (0 Bft)
27.11.2013 16:28 5,4 C 4,4 C 89 % 1032,4 hPa 0,0 l/m 0 min 0 min 0,0 UV-I 0 W/m 2,6 km/h (1 Bft)
27.11.2013 16:30 5,4 C 4,4 C 89 % 1032,4 hPa 0,0 l/m 0 min 0 min 0,0 UV-I 0 W/m 5,1 km/h (1 Bft)
27.11.2013 16:32 5,4 C 4,4 C 89 % 1032,5 hPa 0,0 l/m 0 min 0 min 0,0 UV-I 0 W/m 2,6 km/h (1 Bft)
27.11.2013 16:34 5,4 C 4,4 C 89 % 1032,5 hPa 0,0 l/m 0 min 0 min 0,0 UV-I 0 W/m 7,7 km/h (2 Bft)
27.11.2013 16:36 5,4 C 4,4 C 89 % 1032,6 hPa 0,0 l/m 0 min 0 min 0,0 UV-I 0 W/m 0,0 km/h (0 Bft)
27.11.2013 16:38 5,4 C 4,4 C 89 % 1032,6 hPa 0,0 l/m 0 min 0 min 0,0 UV-I 0 W/m 0,0 km/h (0 Bft)
27.11.2013 16:40 5,4 C 4,4 C 89 % 1032,6 hPa 0,0 l/m 0 min 0 min 0,0 UV-I 0 W/m 0,0 km/h (0 Bft)
27.11.2013 16:42 5,4 C 4,4 C 89 % 1032,6 hPa 0,0 l/m 0 min 0 min 0,0 UV-I 0 W/m 5,1 km/h (1 Bft)
27.11.2013 16:44 5,3 C 3,9 C 89 % 1032,6 hPa 0,0 l/m 0 min 0 min 0,0 UV-I 0 W/m 0,0 km/h (0 Bft)
27.11.2013 16:46 5,4 C 3,9 C 89 % 1032,6 hPa 0,0 l/m 0 min 0 min 0,0 UV-I 0 W/m 0,0 km/h (0 Bft)
27.11.2013 16:48 5,3 C 3,9 C 89 % 1032,6 hPa 0,0 l/m 0 min 0 min 0,0 UV-I 0 W/m 2,6 km/h (1 Bft)
27.11.2013 16:50 5,3 C 3,9 C 89 % 1032,6 hPa 0,0 l/m 0 min 0 min 0,0 UV-I 0 W/m 2,6 km/h (1 Bft)
27.11.2013 16:52 5,3 C 3,9 C 89 % 1032,6 hPa 0,0 l/m 0 min 0 min 0,0 UV-I 0 W/m 7,7 km/h (2 Bft)
27.11.2013 16:54 5,3 C 3,9 C 89 % 1032,6 hPa 0,0 l/m 0 min 0 min 0,0 UV-I 0 W/m 7,7 km/h (2 Bft)
27.11.2013 16:56 5,3 C 3,9 C 89 % 1032,6 hPa 0,0 l/m 0 min 0 min 0,0 UV-I 0 W/m 0,0 km/h (0 Bft)
27.11.2013 16:58 5,3 C 3,9 C 89 % 1032,6 hPa 0,0 l/m 0 min 0 min 0,0 UV-I 0 W/m 0,0 km/h (0 Bft)
27.11.2013 17:00 5,3 C 3,9 C 89 % 1032,6 hPa 0,0 l/m 0 min 0 min 0,0 UV-I 0 W/m 7,7 km/h (2 Bft)
27.11.2013 17:02 5,2 C 3,9 C 89 % 1032,6 hPa 0,0 l/m 0 min 0 min 0,0 UV-I 0 W/m 7,7 km/h (2 Bft)
27.11.2013 17:04 5,2 C 3,9 C 89 % 1032,6 hPa 0,0 l/m 0 min 0 min 0,0 UV-I 0 W/m 2,6 km/h (1 Bft)
27.11.2013 17:06 5,2 C 3,9 C 89 % 1032,6 hPa 0,0 l/m 0 min 0 min 0,0 UV-I 0 W/m 0,0 km/h (0 Bft)
27.11.2013 17:08 5,2 C 3,9 C 90 % 1032,6 hPa 0,0 l/m 0 min 0 min 0,0 UV-I 0 W/m 0,0 km/h (0 Bft)
27.11.2013 17:10 5,2 C 3,9 C 90 % 1032,6 hPa 0,0 l/m 0 min 0 min 0,0 UV-I 0 W/m 5,1 km/h (1 Bft)
27.11.2013 17:12 5,2 C 3,9 C 90 % 1032,6 hPa 0,0 l/m 0 min 0 min 0,0 UV-I 0 W/m 2,6 km/h (1 Bft)
27.11.2013 17:14 5,1 C 3,9 C 90 % 1032,6 hPa 0,0 l/m 0 min 0 min 0,0 UV-I 0 W/m 5,1 km/h (1 Bft)
27.11.2013 17:16 5,1 C 3,9 C 90 % 1032,6 hPa 0,0 l/m 0 min 0 min 0,0 UV-I 0 W/m 5,1 km/h (1 Bft)
27.11.2013 17:18 5,1 C 3,9 C 90 % 1032,6 hPa 0,0 l/m 0 min 0 min 0,0 UV-I 0 W/m 7,7 km/h (2 Bft)
27.11.2013 17:20 5,1 C 3,9 C 89 % 1032,6 hPa 0,0 l/m 0 min 0 min 0,0 UV-I 0 W/m 7,7 km/h (2 Bft)
27.11.2013 17:22 5,1 C 3,9 C 89 % 1032,6 hPa 0,0 l/m 0 min 0 min 0,0 UV-I 0 W/m 5,1 km/h (1 Bft)
27.11.2013 17:24 5,0 C 3,9 C 89 % 1032,5 hPa 0,0 l/m 0 min 0 min 0,0 UV-I 0 W/m 0,0 km/h (0 Bft)
27.11.2013 17:26 5,0 C 3,9 C 90 % 1032,6 hPa 0,0 l/m 0 min 0 min 0,0 UV-I 0 W/m 5,1 km/h (1 Bft)
27.11.2013 17:28 5,0 C 3,9 C 90 % 1032,5 hPa 0,0 l/m 0 min 0 min 0,0 UV-I 0 W/m 7,7 km/h (2 Bft)
27.11.2013 17:30 5,0 C 3,9 C 90 % 1032,6 hPa 0,0 l/m 0 min 0 min 0,0 UV-I 0 W/m 5,1 km/h (1 Bft)
27.11.2013 17:32 4,9 C 3,9 C 90 % 1032,6 hPa 0,0 l/m 0 min 0 min 0,0 UV-I 0 W/m 2,6 km/h (1 Bft)
27.11.2013 17:34 4,9 C 3,9 C 90 % 1032,6 hPa 0,0 l/m 0 min 0 min 0,0 UV-I 0 W/m 7,7 km/h (2 Bft)
27.11.2013 17:36 4,9 C 3,9 C 90 % 1032,5 hPa 0,0 l/m 0 min 0 min 0,0 UV-I 0 W/m 7,7 km/h (2 Bft)
27.11.2013 17:38 4,9 C 3,9 C 90 % 1032,5 hPa 0,0 l/m 0 min 0 min 0,0 UV-I 0 W/m 7,7 km/h (2 Bft)
27.11.2013 17:40 4,9 C 3,9 C 90 % 1032,5 hPa 0,0 l/m 0 min 0 min 0,0 UV-I 0 W/m 7,7 km/h (2 Bft)
27.11.2013 17:42 4,9 C 3,9 C 90 % 1032,5 hPa 0,0 l/m 0 min 0 min 0,0 UV-I 0 W/m 7,7 km/h (2 Bft)
27.11.2013 17:44 4,8 C 3,9 C 90 % 1032,6 hPa 0,0 l/m 0 min 0 min 0,0 UV-I 0 W/m 0,0 km/h (0 Bft)
27.11.2013 17:46 4,8 C 3,9 C 90 % 1032,5 hPa 0,0 l/m 0 min 0 min 0,0 UV-I 0 W/m 0,0 km/h (0 Bft)
27.11.2013 17:48 4,8 C 3,9 C 90 % 1032,5 hPa 0,0 l/m 0 min 0 min 0,0 UV-I 0 W/m 0,0 km/h (0 Bft)
27.11.2013 17:50 4,8 C 3,9 C 90 % 1032,5 hPa 0,0 l/m 0 min 0 min 0,0 UV-I 0 W/m 0,0 km/h (0 Bft)
27.11.2013 17:52 4,8 C 3,9 C 90 % 1032,4 hPa 0,0 l/m 0 min 0 min 0,0 UV-I 0 W/m 0,0 km/h (0 Bft)
27.11.2013 17:54 4,8 C 3,9 C 90 % 1032,4 hPa 0,0 l/m 0 min 0 min 0,0 UV-I 0 W/m 2,6 km/h (1 Bft)
27.11.2013 17:56 4,8 C 3,9 C 90 % 1032,4 hPa 0,0 l/m 0 min 0 min 0,0 UV-I 0 W/m 0,0 km/h (0 Bft)
27.11.2013 17:58 4,8 C 3,9 C 90 % 1032,5 hPa 0,0 l/m 0 min 0 min 0,0 UV-I 0 W/m 0,0 km/h (0 Bft)
27.11.2013 18:00 4,8 C 3,9 C 90 % 1032,4 hPa 0,0 l/m 0 min 0 min 0,0 UV-I 0 W/m 0,0 km/h (0 Bft)
27.11.2013 18:02 4,8 C 3,9 C 91 % 1032,4 hPa 0,0 l/m 0 min 0 min 0,0 UV-I 0 W/m 0,0 km/h (0 Bft)
27.11.2013 18:04 4,8 C 3,9 C 91 % 1032,5 hPa 0,0 l/m 0 min 0 min 0,0 UV-I 0 W/m 0,0 km/h (0 Bft)
27.11.2013 18:06 4,8 C 3,9 C 91 % 1032,5 hPa 0,0 l/m 0 min 0 min 0,0 UV-I 0 W/m 0,0 km/h (0 Bft)
27.11.2013 18:08 4,7 C 3,9 C 91 % 1032,4 hPa 0,0 l/m 0 min 0 min 0,0 UV-I 0 W/m 0,0 km/h (0 Bft)
27.11.2013 18:10 4,8 C 3,9 C 91 % 1032,5 hPa 0,0 l/m 0 min 0 min 0,0 UV-I 0 W/m 0,0 km/h (0 Bft)
27.11.2013 18:12 4,8 C 3,9 C 91 % 1032,5 hPa 0,0 l/m 0 min 0 min 0,0 UV-I 0 W/m 0,0 km/h (0 Bft)
27.11.2013 18:14 4,8 C 3,9 C 91 % 1032,5 hPa 0,0 l/m 0 min 0 min 0,0 UV-I 0 W/m 0,0 km/h (0 Bft)
27.11.2013 18:16 4,8 C 3,9 C 91 % 1032,5 hPa 0,0 l/m 0 min 0 min 0,0 UV-I 0 W/m 0,0 km/h (0 Bft)
27.11.2013 18:18 4,8 C 3,9 C 91 % 1032,4 hPa 0,0 l/m 0 min 0 min 0,0 UV-I 0 W/m 0,0 km/h (0 Bft)
27.11.2013 18:20 4,8 C 3,9 C 91 % 1032,5 hPa 0,0 l/m 0 min 0 min 0,0 UV-I 0 W/m 0,0 km/h (0 Bft)
27.11.2013 18:22 4,8 C 3,9 C 91 % 1032,5 hPa 0,0 l/m 0 min 0 min 0,0 UV-I 0 W/m 0,0 km/h (0 Bft)
27.11.2013 18:24 4,8 C 3,9 C 91 % 1032,5 hPa 0,0 l/m 0 min 0 min 0,0 UV-I 0 W/m 0,0 km/h (0 Bft)
27.11.2013 18:26 4,8 C 3,9 C 91 % 1032,5 hPa 0,0 l/m 0 min 0 min 0,0 UV-I 0 W/m 0,0 km/h (0 Bft)
27.11.2013 18:28 4,8 C 3,9 C 91 % 1032,4 hPa 0,0 l/m 0 min 0 min 0,0 UV-I 0 W/m 0,0 km/h (0 Bft)
27.11.2013 18:30 4,8 C 3,9 C 92 % 1032,4 hPa 0,0 l/m 0 min 0 min 0,0 UV-I 0 W/m 0,0 km/h (0 Bft)
27.11.2013 18:32 4,8 C 3,9 C 92 % 1032,5 hPa 0,0 l/m 0 min 0 min 0,0 UV-I 0 W/m 0,0 km/h (0 Bft)
27.11.2013 18:34 4,8 C 3,9 C 92 % 1032,4 hPa 0,0 l/m 0 min 0 min 0,0 UV-I 0 W/m 0,0 km/h (0 Bft)
27.11.2013 18:36 4,8 C 3,9 C 92 % 1032,4 hPa 0,0 l/m 0 min 0 min 0,0 UV-I 0 W/m 0,0 km/h (0 Bft)
27.11.2013 18:38 4,8 C 3,9 C 92 % 1032,5 hPa 0,0 l/m 0 min 0 min 0,0 UV-I 0 W/m 0,0 km/h (0 Bft)
27.11.2013 18:40 4,8 C 3,9 C 92 % 1032,5 hPa 0,0 l/m 0 min 0 min 0,0 UV-I 0 W/m 0,0 km/h (0 Bft)
27.11.2013 18:42 4,8 C 3,9 C 92 % 1032,5 hPa 0,0 l/m 0 min 0 min 0,0 UV-I 0 W/m 0,0 km/h (0 Bft)
27.11.2013 18:44 4,8 C 3,9 C 92 % 1032,4 hPa 0,0 l/m 0 min 0 min 0,0 UV-I 0 W/m 0,0 km/h (0 Bft)
27.11.2013 18:46 4,8 C 3,9 C 92 % 1032,4 hPa 0,0 l/m 0 min 0 min 0,0 UV-I 0 W/m 0,0 km/h (0 Bft)
27.11.2013 18:48 4,8 C 3,9 C 92 % 1032,4 hPa 0,0 l/m 0 min 0 min 0,0 UV-I 0 W/m 0,0 km/h (0 Bft)
27.11.2013 18:50 4,8 C 3,9 C 92 % 1032,5 hPa 0,0 l/m 0 min 0 min 0,0 UV-I 0 W/m 0,0 km/h (0 Bft)
27.11.2013 18:52 4,9 C 3,9 C 92 % 1032,5 hPa 0,0 l/m 0 min 0 min 0,0 UV-I 0 W/m 0,0 km/h (0 Bft)
27.11.2013 18:54 4,9 C 3,9 C 92 % 1032,5 hPa 0,0 l/m 0 min 0 min 0,0 UV-I 0 W/m 0,0 km/h (0 Bft)
27.11.2013 18:56 4,8 C 3,9 C 92 % 1032,6 hPa 0,0 l/m 0 min 0 min 0,0 UV-I 0 W/m 0,0 km/h (0 Bft)
27.11.2013 18:58 4,8 C 3,9 C 92 % 1032,6 hPa 0,0 l/m 0 min 0 min 0,0 UV-I 0 W/m 0,0 km/h (0 Bft)
27.11.2013 19:00 4,9 C 3,9 C 92 % 1032,5 hPa 0,0 l/m 0 min 0 min 0,0 UV-I 0 W/m 0,0 km/h (0 Bft)
27.11.2013 19:02 4,9 C 3,9 C 92 % 1032,5 hPa 0,0 l/m 0 min 0 min 0,0 UV-I 0 W/m 0,0 km/h (0 Bft)
27.11.2013 19:04 4,9 C 3,9 C 92 % 1032,5 hPa 0,0 l/m 0 min 0 min 0,0 UV-I 0 W/m 0,0 km/h (0 Bft)
27.11.2013 19:06 4,9 C 3,9 C 92 % 1032,5 hPa 0,0 l/m 0 min 0 min 0,0 UV-I 0 W/m 0,0 km/h (0 Bft)
27.11.2013 19:08 4,9 C 3,9 C 92 % 1032,5 hPa 0,0 l/m 0 min 0 min 0,0 UV-I 0 W/m 0,0 km/h (0 Bft)
27.11.2013 19:10 4,9 C 3,9 C 93 % 1032,6 hPa 0,0 l/m 0 min 0 min 0,0 UV-I 0 W/m 0,0 km/h (0 Bft)
27.11.2013 19:12 4,9 C 3,9 C 93 % 1032,6 hPa 0,0 l/m 0 min 0 min 0,0 UV-I 0 W/m 0,0 km/h (0 Bft)
27.11.2013 19:14 4,9 C 3,9 C 93 % 1032,7 hPa 0,0 l/m 0 min 0 min 0,0 UV-I 0 W/m 0,0 km/h (0 Bft)
27.11.2013 19:16 4,9 C 3,9 C 93 % 1032,7 hPa 0,0 l/m 0 min 0 min 0,0 UV-I 0 W/m 0,0 km/h (0 Bft)
27.11.2013 19:18 4,9 C 3,9 C 93 % 1032,7 hPa 0,0 l/m 0 min 0 min 0,0 UV-I 0 W/m 0,0 km/h (0 Bft)
27.11.2013 19:20 4,9 C 3,9 C 93 % 1032,7 hPa 0,0 l/m 0 min 0 min 0,0 UV-I 0 W/m 0,0 km/h (0 Bft)
27.11.2013 19:22 4,9 C 3,9 C 93 % 1032,7 hPa 0,0 l/m 0 min 0 min 0,0 UV-I 0 W/m 0,0 km/h (0 Bft)
27.11.2013 19:24 4,9 C 3,9 C 93 % 1032,7 hPa 0,0 l/m 0 min 0 min 0,0 UV-I 0 W/m 0,0 km/h (0 Bft)
27.11.2013 19:26 4,9 C 3,9 C 93 % 1032,7 hPa 0,0 l/m 0 min 0 min 0,0 UV-I 0 W/m 0,0 km/h (0 Bft)
27.11.2013 19:28 4,9 C 3,9 C 93 % 1032,6 hPa 0,0 l/m 0 min 0 min 0,0 UV-I 0 W/m 0,0 km/h (0 Bft)
27.11.2013 19:30 4,9 C 3,9 C 93 % 1032,6 hPa 0,0 l/m 0 min 0 min 0,0 UV-I 0 W/m 0,0 km/h (0 Bft)
27.11.2013 19:32 4,9 C 3,9 C 93 % 1032,6 hPa 0,0 l/m 0 min 0 min 0,0 UV-I 0 W/m 0,0 km/h (0 Bft)
27.11.2013 19:34 4,9 C 3,9 C 93 % 1032,6 hPa 0,0 l/m 0 min 0 min 0,0 UV-I 0 W/m 0,0 km/h (0 Bft)
27.11.2013 19:36 4,9 C 3,9 C 93 % 1032,6 hPa 0,0 l/m 0 min 0 min 0,0 UV-I 0 W/m 0,0 km/h (0 Bft)
27.11.2013 19:38 4,9 C 3,9 C 93 % 1032,6 hPa 0,0 l/m 0 min 0 min 0,0 UV-I 0 W/m 0,0 km/h (0 Bft)
27.11.2013 19:40 4,9 C 3,9 C 93 % 1032,5 hPa 0,0 l/m 0 min 0 min 0,0 UV-I 0 W/m 0,0 km/h (0 Bft)
27.11.2013 19:42 4,9 C 3,9 C 93 % 1032,6 hPa 0,0 l/m 0 min 0 min 0,0 UV-I 0 W/m 0,0 km/h (0 Bft)
27.11.2013 19:44 4,9 C 3,9 C 93 % 1032,6 hPa 0,0 l/m 0 min 0 min 0,0 UV-I 0 W/m 0,0 km/h (0 Bft)
27.11.2013 19:46 4,9 C 3,9 C 93 % 1032,6 hPa 0,0 l/m 0 min 0 min 0,0 UV-I 0 W/m 0,0 km/h (0 Bft)
27.11.2013 19:48 4,9 C 3,9 C 93 % 1032,6 hPa 0,0 l/m 0 min 0 min 0,0 UV-I 0 W/m 0,0 km/h (0 Bft)
27.11.2013 19:50 4,9 C 3,9 C 93 % 1032,6 hPa 0,0 l/m 0 min 0 min 0,0 UV-I 0 W/m 0,0 km/h (0 Bft)
27.11.2013 19:52 4,9 C 3,9 C 93 % 1032,6 hPa 0,0 l/m 0 min 0 min 0,0 UV-I 0 W/m 0,0 km/h (0 Bft)
27.11.2013 19:54 4,9 C 3,9 C 93 % 1032,5 hPa 0,0 l/m 0 min 0 min 0,0 UV-I 0 W/m 0,0 km/h (0 Bft)
27.11.2013 19:56 4,9 C 3,9 C 93 % 1032,6 hPa 0,0 l/m 0 min 0 min 0,0 UV-I 0 W/m 0,0 km/h (0 Bft)
27.11.2013 19:58 4,9 C 3,9 C 93 % 1032,6 hPa 0,0 l/m 0 min 0 min 0,0 UV-I 0 W/m 0,0 km/h (0 Bft)
27.11.2013 20:00 5,0 C 3,9 C 93 % 1032,5 hPa 0,0 l/m 0 min 0 min 0,0 UV-I 0 W/m 0,0 km/h (0 Bft)
27.11.2013 20:02 5,0 C 3,9 C 93 % 1032,5 hPa 0,0 l/m 0 min 0 min 0,0 UV-I 0 W/m 0,0 km/h (0 Bft)
27.11.2013 20:04 5,0 C 3,9 C 93 % 1032,6 hPa 0,0 l/m 0 min 0 min 0,0 UV-I 0 W/m 0,0 km/h (0 Bft)
27.11.2013 20:06 5,0 C 3,9 C 93 % 1032,5 hPa 0,0 l/m 0 min 0 min 0,0 UV-I 0 W/m 0,0 km/h (0 Bft)
27.11.2013 20:08 5,0 C 3,9 C 93 % 1032,5 hPa 0,0 l/m 0 min 0 min 0,0 UV-I 0 W/m 0,0 km/h (0 Bft)
27.11.2013 20:10 5,0 C 3,9 C 93 % 1032,5 hPa 0,0 l/m 0 min 0 min 0,0 UV-I 0 W/m 0,0 km/h (0 Bft)
27.11.2013 20:12 5,0 C 3,9 C 93 % 1032,5 hPa 0,0 l/m 0 min 0 min 0,0 UV-I 0 W/m 0,0 km/h (0 Bft)
27.11.2013 20:14 5,0 C 3,9 C 93 % 1032,5 hPa 0,0 l/m 0 min 0 min 0,0 UV-I 0 W/m 0,0 km/h (0 Bft)
27.11.2013 20:16 5,0 C 3,9 C 93 % 1032,5 hPa 0,0 l/m 0 min 0 min 0,0 UV-I 0 W/m 0,0 km/h (0 Bft)
27.11.2013 20:18 5,0 C 3,9 C 93 % 1032,5 hPa 0,0 l/m 0 min 0 min 0,0 UV-I 0 W/m 0,0 km/h (0 Bft)
27.11.2013 20:20 5,1 C 3,9 C 93 % 1032,6 hPa 0,0 l/m 0 min 0 min 0,0 UV-I 0 W/m 0,0 km/h (0 Bft)
27.11.2013 20:22 5,1 C 3,9 C 93 % 1032,5 hPa 0,0 l/m 0 min 0 min 0,0 UV-I 0 W/m 0,0 km/h (0 Bft)
27.11.2013 20:24 5,1 C 4,4 C 93 % 1032,5 hPa 0,0 l/m 0 min 0 min 0,0 UV-I 0 W/m 0,0 km/h (0 Bft)
27.11.2013 20:26 5,1 C 4,4 C 93 % 1032,5 hPa 0,0 l/m 0 min 0 min 0,0 UV-I 0 W/m 0,0 km/h (0 Bft)
27.11.2013 20:28 5,1 C 4,4 C 93 % 1032,5 hPa 0,0 l/m 0 min 0 min 0,0 UV-I 0 W/m 0,0 km/h (0 Bft)
27.11.2013 20:30 5,1 C 4,4 C 93 % 1032,5 hPa 0,0 l/m 0 min 0 min 0,0 UV-I 0 W/m 0,0 km/h (0 Bft)
27.11.2013 20:32 5,1 C 4,4 C 93 % 1032,5 hPa 0,0 l/m 0 min 0 min 0,0 UV-I 0 W/m 0,0 km/h (0 Bft)
27.11.2013 20:34 5,1 C 4,4 C 94 % 1032,5 hPa 0,0 l/m 0 min 0 min 0,0 UV-I 0 W/m 5,1 km/h (1 Bft)
27.11.2013 20:36 5,1 C 4,4 C 94 % 1032,5 hPa 0,0 l/m 0 min 0 min 0,0 UV-I 0 W/m 2,6 km/h (1 Bft)
27.11.2013 20:38 5,2 C 4,4 C 94 % 1032,5 hPa 0,0 l/m 0 min 0 min 0,0 UV-I 0 W/m 0,0 km/h (0 Bft)
27.11.2013 20:40 5,2 C 4,4 C 94 % 1032,5 hPa 0,0 l/m 0 min 0 min 0,0 UV-I 0 W/m 0,0 km/h (0 Bft)
27.11.2013 20:42 5,2 C 4,4 C 94 % 1032,5 hPa 0,0 l/m 0 min 0 min 0,0 UV-I 0 W/m 2,6 km/h (1 Bft)
27.11.2013 20:44 5,2 C 4,4 C 94 % 1032,4 hPa 0,0 l/m 0 min 0 min 0,0 UV-I 0 W/m 0,0 km/h (0 Bft)
27.11.2013 20:46 5,3 C 4,4 C 94 % 1032,5 hPa 0,0 l/m 0 min 0 min 0,0 UV-I 0 W/m 0,0 km/h (0 Bft)
27.11.2013 20:48 5,3 C 4,4 C 94 % 1032,4 hPa 0,0 l/m 0 min 0 min 0,0 UV-I 0 W/m 0,0 km/h (0 Bft)
27.11.2013 20:50 5,3 C 4,4 C 94 % 1032,5 hPa 0,0 l/m 0 min 0 min 0,0 UV-I 0 W/m 0,0 km/h (0 Bft)
27.11.2013 20:52 5,3 C 4,4 C 94 % 1032,4 hPa 0,0 l/m 0 min 0 min 0,0 UV-I 0 W/m 2,6 km/h (1 Bft)
27.11.2013 20:54 5,3 C 4,4 C 94 % 1032,4 hPa 0,0 l/m 0 min 0 min 0,0 UV-I 0 W/m 0,0 km/h (0 Bft)
27.11.2013 20:56 5,3 C 4,4 C 94 % 1032,4 hPa 0,0 l/m 0 min 0 min 0,0 UV-I 0 W/m 0,0 km/h (0 Bft)
27.11.2013 20:58 5,4 C 4,4 C 94 % 1032,4 hPa 0,0 l/m 0 min 0 min 0,0 UV-I 0 W/m 0,0 km/h (0 Bft)
27.11.2013 21:00 5,4 C 4,4 C 94 % 1032,5 hPa 0,0 l/m 0 min 0 min 0,0 UV-I 0 W/m 0,0 km/h (0 Bft)
27.11.2013 21:02 5,4 C 4,4 C 94 % 1032,5 hPa 0,0 l/m 0 min 0 min 0,0 UV-I 0 W/m 0,0 km/h (0 Bft)
27.11.2013 21:04 5,4 C 4,4 C 94 % 1032,5 hPa 0,0 l/m 0 min 0 min 0,0 UV-I 0 W/m 0,0 km/h (0 Bft)
27.11.2013 21:06 5,4 C 4,4 C 94 % 1032,5 hPa 0,0 l/m 0 min 0 min 0,0 UV-I 0 W/m 0,0 km/h (0 Bft)
27.11.2013 21:08 5,4 C 4,4 C 94 % 1032,5 hPa 0,0 l/m 0 min 0 min 0,0 UV-I 0 W/m 0,0 km/h (0 Bft)
27.11.2013 21:10 5,4 C 4,4 C 94 % 1032,5 hPa 0,0 l/m 0 min 0 min 0,0 UV-I 0 W/m 0,0 km/h (0 Bft)
27.11.2013 21:12 5,4 C 4,4 C 94 % 1032,4 hPa 0,0 l/m 0 min 0 min 0,0 UV-I 0 W/m 0,0 km/h (0 Bft)
27.11.2013 21:14 5,4 C 4,4 C 94 % 1032,4 hPa 0,0 l/m 0 min 0 min 0,0 UV-I 0 W/m 0,0 km/h (0 Bft)
27.11.2013 21:16 5,5 C 4,4 C 94 % 1032,4 hPa 0,0 l/m 0 min 0 min 0,0 UV-I 0 W/m 0,0 km/h (0 Bft)
27.11.2013 21:18 5,5 C 4,4 C 94 % 1032,5 hPa 0,0 l/m 0 min 0 min 0,0 UV-I 0 W/m 0,0 km/h (0 Bft)
27.11.2013 21:20 5,5 C 4,4 C 94 % 1032,5 hPa 0,0 l/m 0 min 0 min 0,0 UV-I 0 W/m 0,0 km/h (0 Bft)
27.11.2013 21:22 5,5 C 4,4 C 94 % 1032,4 hPa 0,0 l/m 0 min 0 min 0,0 UV-I 0 W/m 0,0 km/h (0 Bft)
27.11.2013 21:24 5,5 C 4,4 C 94 % 1032,5 hPa 0,0 l/m 0 min 0 min 0,0 UV-I 0 W/m 0,0 km/h (0 Bft)
27.11.2013 21:26 5,6 C 4,4 C 94 % 1032,5 hPa 0,0 l/m 0 min 0 min 0,0 UV-I 0 W/m 0,0 km/h (0 Bft)
27.11.2013 21:28 5,6 C 4,4 C 94 % 1032,5 hPa 0,0 l/m 0 min 0 min 0,0 UV-I 0 W/m 0,0 km/h (0 Bft)
27.11.2013 21:30 5,6 C 4,4 C 94 % 1032,5 hPa 0,0 l/m 0 min 0 min 0,0 UV-I 0 W/m 5,1 km/h (1 Bft)
27.11.2013 21:32 5,6 C 4,4 C 94 % 1032,5 hPa 0,0 l/m 0 min 0 min 0,0 UV-I 0 W/m 5,1 km/h (1 Bft)
27.11.2013 21:34 5,6 C 4,4 C 94 % 1032,5 hPa 0,0 l/m 0 min 0 min 0,0 UV-I 0 W/m 0,0 km/h (0 Bft)
27.11.2013 21:36 5,6 C 4,4 C 94 % 1032,5 hPa 0,0 l/m 0 min 0 min 0,0 UV-I 0 W/m 5,1 km/h (1 Bft)
27.11.2013 21:38 5,6 C 4,4 C 94 % 1032,5 hPa 0,0 l/m 0 min 0 min 0,0 UV-I 0 W/m 0,0 km/h (0 Bft)
27.11.2013 21:40 5,6 C 4,4 C 94 % 1032,5 hPa 0,0 l/m 0 min 0 min 0,0 UV-I 0 W/m 7,7 km/h (2 Bft)
27.11.2013 21:42 5,6 C 4,4 C 94 % 1032,4 hPa 0,0 l/m 0 min 0 min 0,0 UV-I 0 W/m 0,0 km/h (0 Bft)
27.11.2013 21:44 5,7 C 4,4 C 94 % 1032,4 hPa 0,0 l/m 0 min 0 min 0,0 UV-I 0 W/m 2,6 km/h (1 Bft)
27.11.2013 21:46 5,7 C 4,4 C 94 % 1032,4 hPa 0,0 l/m 0 min 0 min 0,0 UV-I 0 W/m 0,0 km/h (0 Bft)
27.11.2013 21:48 5,7 C 4,4 C 94 % 1032,5 hPa 0,0 l/m 0 min 0 min 0,0 UV-I 0 W/m 0,0 km/h (0 Bft)
27.11.2013 21:50 5,7 C 4,4 C 94 % 1032,5 hPa 0,0 l/m 0 min 0 min 0,0 UV-I 0 W/m 0,0 km/h (0 Bft)
27.11.2013 21:52 5,7 C 4,4 C 94 % 1032,5 hPa 0,0 l/m 0 min 0 min 0,0 UV-I 0 W/m 0,0 km/h (0 Bft)
27.11.2013 21:54 5,7 C 4,4 C 94 % 1032,5 hPa 0,0 l/m 0 min 0 min 0,0 UV-I 0 W/m 0,0 km/h (0 Bft)
27.11.2013 21:56 5,7 C 4,4 C 94 % 1032,5 hPa 0,0 l/m 0 min 0 min 0,0 UV-I 0 W/m 0,0 km/h (0 Bft)
27.11.2013 21:58 5,7 C 4,4 C 94 % 1032,5 hPa 0,0 l/m 0 min 0 min 0,0 UV-I 0 W/m 0,0 km/h (0 Bft)
27.11.2013 22:00 5,7 C 4,4 C 94 % 1032,6 hPa 0,0 l/m 0 min 0 min 0,0 UV-I 0 W/m 0,0 km/h (0 Bft)
27.11.2013 22:02 5,7 C 4,4 C 94 % 1032,6 hPa 0,0 l/m 0 min 0 min 0,0 UV-I 0 W/m 0,0 km/h (0 Bft)
27.11.2013 22:04 5,7 C 4,4 C 94 % 1032,6 hPa 0,0 l/m 0 min 0 min 0,0 UV-I 0 W/m 0,0 km/h (0 Bft)
27.11.2013 22:06 5,7 C 4,4 C 94 % 1032,6 hPa 0,0 l/m 0 min 0 min 0,0 UV-I 0 W/m 0,0 km/h (0 Bft)
27.11.2013 22:08 5,7 C 4,4 C 94 % 1032,5 hPa 0,0 l/m 0 min 0 min 0,0 UV-I 0 W/m 0,0 km/h (0 Bft)
27.11.2013 22:10 5,7 C 4,4 C 94 % 1032,5 hPa 0,0 l/m 0 min 0 min 0,0 UV-I 0 W/m 0,0 km/h (0 Bft)
27.11.2013 22:12 5,7 C 4,4 C 94 % 1032,5 hPa 0,0 l/m 0 min 0 min 0,0 UV-I 0 W/m 5,1 km/h (1 Bft)
27.11.2013 22:14 5,7 C 4,4 C 94 % 1032,5 hPa 0,0 l/m 0 min 0 min 0,0 UV-I 0 W/m 0,0 km/h (0 Bft)
27.11.2013 22:16 5,7 C 4,4 C 94 % 1032,4 hPa 0,0 l/m 0 min 0 min 0,0 UV-I 0 W/m 0,0 km/h (0 Bft)
27.11.2013 22:18 5,8 C 4,4 C 94 % 1032,5 hPa 0,0 l/m 0 min 0 min 0,0 UV-I 0 W/m 0,0 km/h (0 Bft)
27.11.2013 22:20 5,7 C 4,4 C 94 % 1032,4 hPa 0,0 l/m 0 min 0 min 0,0 UV-I 0 W/m 0,0 km/h (0 Bft)
27.11.2013 22:22 5,8 C 4,4 C 94 % 1032,6 hPa 0,0 l/m 0 min 0 min 0,0 UV-I 0 W/m 7,7 km/h (2 Bft)
27.11.2013 22:24 5,8 C 4,4 C 94 % 1032,6 hPa 0,0 l/m 0 min 0 min 0,0 UV-I 0 W/m 5,1 km/h (1 Bft)
27.11.2013 22:26 5,8 C 5,0 C 94 % 1032,6 hPa 0,0 l/m 0 min 0 min 0,0 UV-I 0 W/m 0,0 km/h (0 Bft)
27.11.2013 22:28 5,8 C 5,0 C 94 % 1032,5 hPa 0,0 l/m 0 min 0 min 0,0 UV-I 0 W/m 0,0 km/h (0 Bft)
27.11.2013 22:30 5,8 C 5,0 C 94 % 1032,6 hPa 0,0 l/m 0 min 0 min 0,0 UV-I 0 W/m 0,0 km/h (0 Bft)
27.11.2013 22:32 5,8 C 5,0 C 94 % 1032,5 hPa 0,0 l/m 0 min 0 min 0,0 UV-I 0 W/m 12,9 km/h (3 Bft)
27.11.2013 22:34 5,8 C 5,0 C 94 % 1032,4 hPa 0,0 l/m 0 min 0 min 0,0 UV-I 0 W/m 0,0 km/h (0 Bft)
27.11.2013 22:36 5,8 C 5,0 C 94 % 1032,4 hPa 0,0 l/m 0 min 0 min 0,0 UV-I 0 W/m 0,0 km/h (0 Bft)
27.11.2013 22:38 5,8 C 5,0 C 94 % 1032,4 hPa 0,0 l/m 0 min 0 min 0,0 UV-I 0 W/m 0,0 km/h (0 Bft)
27.11.2013 22:40 5,8 C 5,0 C 94 % 1032,4 hPa 0,0 l/m 0 min 0 min 0,0 UV-I 0 W/m 0,0 km/h (0 Bft)
27.11.2013 22:42 5,8 C 5,0 C 94 % 1032,5 hPa 0,0 l/m 0 min 0 min 0,0 UV-I 0 W/m 0,0 km/h (0 Bft)
27.11.2013 22:44 5,8 C 5,0 C 93 % 1032,5 hPa 0,0 l/m 0 min 0 min 0,0 UV-I 0 W/m 0,0 km/h (0 Bft)
27.11.2013 22:46 5,8 C 5,0 C 93 % 1032,5 hPa 0,0 l/m 0 min 0 min 0,0 UV-I 0 W/m 0,0 km/h (0 Bft)
27.11.2013 22:48 5,8 C 5,0 C 93 % 1032,4 hPa 0,0 l/m 0 min 0 min 0,0 UV-I 0 W/m 2,6 km/h (1 Bft)
27.11.2013 22:50 5,8 C 5,0 C 93 % 1032,4 hPa 0,0 l/m 0 min 0 min 0,0 UV-I 0 W/m 5,1 km/h (1 Bft)
27.11.2013 22:52 5,8 C 5,0 C 93 % 1032,3 hPa 0,0 l/m 0 min 0 min 0,0 UV-I 0 W/m 0,0 km/h (0 Bft)
27.11.2013 22:54 5,8 C 5,0 C 93 % 1032,3 hPa 0,0 l/m 0 min 0 min 0,0 UV-I 0 W/m 0,0 km/h (0 Bft)
27.11.2013 22:56 5,8 C 5,0 C 93 % 1032,3 hPa 0,0 l/m 0 min 0 min 0,0 UV-I 0 W/m 0,0 km/h (0 Bft)
27.11.2013 22:58 5,8 C 5,0 C 93 % 1032,4 hPa 0,0 l/m 0 min 0 min 0,0 UV-I 0 W/m 0,0 km/h (0 Bft)
27.11.2013 23:00 5,9 C 5,0 C 93 % 1032,4 hPa 0,0 l/m 0 min 0 min 0,0 UV-I 0 W/m 0,0 km/h (0 Bft)
27.11.2013 23:02 5,9 C 5,0 C 93 % 1032,4 hPa 0,0 l/m 0 min 0 min 0,0 UV-I 0 W/m 0,0 km/h (0 Bft)
27.11.2013 23:04 5,9 C 5,0 C 93 % 1032,5 hPa 0,0 l/m 0 min 0 min 0,0 UV-I 0 W/m 0,0 km/h (0 Bft)
27.11.2013 23:06 5,9 C 5,0 C 93 % 1032,4 hPa 0,0 l/m 0 min 0 min 0,0 UV-I 0 W/m 0,0 km/h (0 Bft)
27.11.2013 23:08 5,9 C 5,0 C 93 % 1032,4 hPa 0,0 l/m 0 min 0 min 0,0 UV-I 0 W/m 5,1 km/h (1 Bft)
27.11.2013 23:10 5,9 C 5,0 C 93 % 1032,4 hPa 0,0 l/m 0 min 0 min 0,0 UV-I 0 W/m 0,0 km/h (0 Bft)
27.11.2013 23:12 5,9 C 5,0 C 93 % 1032,4 hPa 0,0 l/m 0 min 0 min 0,0 UV-I 0 W/m 2,6 km/h (1 Bft)
27.11.2013 23:14 5,9 C 5,0 C 93 % 1032,5 hPa 0,0 l/m 0 min 0 min 0,0 UV-I 0 W/m 0,0 km/h (0 Bft)
27.11.2013 23:16 5,9 C 5,0 C 93 % 1032,3 hPa 0,0 l/m 0 min 0 min 0,0 UV-I 0 W/m 2,6 km/h (1 Bft)
27.11.2013 23:18 5,9 C 5,0 C 93 % 1032,3 hPa 0,0 l/m 0 min 0 min 0,0 UV-I 0 W/m 7,7 km/h (2 Bft)
27.11.2013 23:20 5,9 C 5,0 C 93 % 1032,3 hPa 0,0 l/m 0 min 0 min 0,0 UV-I 0 W/m 5,1 km/h (1 Bft)
27.11.2013 23:22 5,9 C 5,0 C 93 % 1032,3 hPa 0,0 l/m 0 min 0 min 0,0 UV-I 0 W/m 5,1 km/h (1 Bft)
27.11.2013 23:24 5,9 C 5,0 C 93 % 1032,3 hPa 0,0 l/m 0 min 0 min 0,0 UV-I 0 W/m 0,0 km/h (0 Bft)
27.11.2013 23:26 5,9 C 5,0 C 93 % 1032,3 hPa 0,0 l/m 0 min 0 min 0,0 UV-I 0 W/m 0,0 km/h (0 Bft)
27.11.2013 23:28 5,9 C 5,0 C 93 % 1032,4 hPa 0,0 l/m 0 min 0 min 0,0 UV-I 0 W/m 0,0 km/h (0 Bft)
27.11.2013 23:30 5,9 C 5,0 C 93 % 1032,4 hPa 0,0 l/m 0 min 0 min 0,0 UV-I 0 W/m 0,0 km/h (0 Bft)
27.11.2013 23:32 5,9 C 5,0 C 93 % 1032,4 hPa 0,0 l/m 0 min 0 min 0,0 UV-I 0 W/m 5,1 km/h (1 Bft)
27.11.2013 23:34 5,9 C 5,0 C 93 % 1032,5 hPa 0,0 l/m 0 min 0 min 0,0 UV-I 0 W/m 2,6 km/h (1 Bft)
27.11.2013 23:36 5,9 C 5,0 C 93 % 1032,4 hPa 0,0 l/m 0 min 0 min 0,0 UV-I 0 W/m 5,1 km/h (1 Bft)
27.11.2013 23:38 5,9 C 5,0 C 93 % 1032,3 hPa 0,0 l/m 0 min 0 min 0,0 UV-I 0 W/m 2,6 km/h (1 Bft)
27.11.2013 23:40 5,9 C 5,0 C 93 % 1032,4 hPa 0,0 l/m 0 min 0 min 0,0 UV-I 0 W/m 10,3 km/h (2 Bft)
27.11.2013 23:42 5,9 C 5,0 C 93 % 1032,4 hPa 0,0 l/m 0 min 0 min 0,0 UV-I 0 W/m 0,0 km/h (0 Bft)
27.11.2013 23:44 5,9 C 5,0 C 93 % 1032,3 hPa 0,0 l/m 0 min 0 min 0,0 UV-I 0 W/m 0,0 km/h (0 Bft)
27.11.2013 23:46 5,9 C 5,0 C 93 % 1032,3 hPa 0,0 l/m 0 min 0 min 0,0 UV-I 0 W/m 7,7 km/h (2 Bft)
27.11.2013 23:48 5,9 C 5,0 C 93 % 1032,4 hPa 0,0 l/m 0 min 0 min 0,0 UV-I 0 W/m 12,9 km/h (3 Bft)
27.11.2013 23:50 5,9 C 5,0 C 93 % 1032,4 hPa 0,0 l/m 0 min 0 min 0,0 UV-I 0 W/m 0,0 km/h (0 Bft)
27.11.2013 23:52 5,9 C 4,4 C 93 % 1032,4 hPa 0,0 l/m 0 min 0 min 0,0 UV-I 0 W/m 0,0 km/h (0 Bft)
27.11.2013 23:54 5,9 C 4,4 C 93 % 1032,4 hPa 0,0 l/m 0 min 0 min 0,0 UV-I 0 W/m 0,0 km/h (0 Bft)
27.11.2013 23:56 5,9 C 4,4 C 93 % 1032,5 hPa 0,0 l/m 0 min 0 min 0,0 UV-I 0 W/m 0,0 km/h (0 Bft)
27.11.2013 23:58 5,9 C 4,4 C 93 % 1032,5 hPa 0,0 l/m 0 min 0 min 0,0 UV-I 0 W/m 0,0 km/h (0 Bft)
_ Min-Zeit 08:26 07:52 13:48 15:40 - - - - - 00:00
Minimum _ 2,6 C 1,7 C 87 % 1032,1 hPa - - - - - 0,0 km/h (0 Bft)
_ Max-Zeit 22:56 12:54 00:16 00:16 00:00 12:14 00:00 00:00 12:14 11:44
Maximum _ 5,9 C 5,0 C 97 % 1033,9 hPa 0,0 l/m 2 min 0 min 0,0 UV-I 169 W/m 20,6 km/h
S-SO (4 Bft)
Durchschnitt _ 4,2 C 3,4 C 93 % 1032,8 hPa #0,0 l/m #4 min. #0 min. 0,0 UV-I 73 W/m 3,6 km/h (1 Bft)
© 2013 W. Hausmann